GEFSMA_con_cape1000_000.txt.gz
Probability
97 81 87 94 100 97 97 94 94 84 100 100 100 100 97 81 94 100 100 100 100 100 100 100 100 100 100 100 100 100 100 100 100 100 100 81 77 39 19 3 0 3 0
97 81 77 97 100 94 94 97 97 100 100 100 100 100 100 97 97 100 100 100 100 100 100 100 100 100 100 100 100 100 100 100 100 100 100 100 97 39 0 0 0 0 0
100 100 100 97 100 100 100 100 100 100 97 100 100 97 97 100 100 100 100 100 100 100 100 100 100 100 100 100 100 100 100 100 100 100 100 100 84 10 0 0 0 0 0
100 100 100 97 100 100 100 100 100 94 97 100 100 100 87 100 97 100 100 100 100 100 100 100 100 100 100 100 100 100 100 100 100 100 100 100 87 23 0 0 0 0 0
87 100 100 100 100 100 100 100 97 100 100 97 87 55 52 68 68 87 90 55 90 100 100 100 100 100 100 100 100 100 100 100 100 100 100 100 87 39 0 0 0 0 0
35 32 48 77 100 100 100 100 100 100 100 97 45 29 45 35 23 19 3 0 0 0 0 87 100 100 100 100 100 100 100 100 100 100 100 100 100 77 0 0 0 0 0
0 0 13 16 65 84 100 97 90 84 77 29 19 3 0 0 0 0 0 0 0 0 0 0 90 100 100 100 100 100 100 100 100 100 100 100 100 100 6 0 0 0 0
0 3 6 13 19 19 55 77 58 61 61 19 0 0 0 0 0 0 0 0 0 0 0 0 68 100 100 100 100 100 100 100 100 100 100 100 100 74 10 0 0 0 0
0 0 10 3 3 3 23 16 16 13 0 0 0 0 0 0 0 0 0 0 0 0 0 3 45 100 100 97 100 97 100 100 100 100 100 100 94 3 0 0 0 0 0
0 0 0 0 0 0 0 0 0 0 0 0 0 0 0 0 23 0 0 0 0 0 0 0 3 16 6 52 90 42 19 32 87 97 97 100 90 0 0 0 0 0 0
0 0 0 0 0 0 0 0 0 0 0 0 0 0 0 0 0 0 0 0 0 0 0 0 0 0 0 23 32 6 0 0 0 0 23 10 6 0 0 3 3 19 13
0 0 0 0 0 0 0 0 0 0 0 0 0 0 0 0 0 0 0 0 0 0 0 0 0 0 0 0 3 0 0 0 0 0 0 0 0 0 0 0 0 3 35
0 0 0 0 0 0 0 0 0 0 0 0 0 0 0 0 0 0 0 0 0 0 0 0 0 0 0 35 77 0 0 0 0 0 0 0 0 0 0 0 0 0 10
0 0 0 0 0 0 0 0 0 0 0 0 0 0 0 0 0 0 0 0 0 0 0 0 0 0 0 0 0 0 3 0 0 0 0 0 0 0 0 0 0 0 0
0 0 0 0 0 0 0 0 0 0 0 0 0 0 0 0 0 0 0 0 0 0 0 0 0 0 0 0 0 0 39 0 0 0 0 0 0 0 0 0 0 0 0
0 0 0 0 0 0 0 0 0 0 0 0 0 0 0 0 0 0 0 0 0 0 0 0 0 0 0 0 0 0 13 0 0 0 0 0 0 0 0 0 0 0 0
0 0 0 0 0 0 0 0 0 0 0 0 0 0 0 0 0 0 0 0 0 0 0 0 0 0 16 0 6 6 6 13 0 0 0 0 0 0 0 0 0 0 0
0 0 0 0 0 0 0 0 0 0 0 0 0 0 0 0 0 0 0 0 0 0 0 0 0 0 0 0 6 68 29 6 13 0 0 0 0 0 0 0 0 0 0
0 0 0 0 0 0 0 0 0 0 0 0 0 0 0 0 0 0 0 0 0 0 0 0 0 0 0 0 0 23 61 84 19 0 0 0 0 0 0 0 0 0 0
0 0 0 0 0 0 0 0 0 0 0 0 0 0 0 0 0 0 0 0 0 0 0 0 0 0 0 0 0 0 0 45 71 0 0 0 0 0 0 0 0 0 0
0 0 0 0 0 0 0 0 0 0 0 0 0 0 0 0 0 0 0 0 0 0 0 0 0 0 0 0 0 0 0 0 52 26 3 10 0 0 0 0 0 0 0
0 0 0 0 0 0 0 0 0 0 0 0 0 0 0 0 0 0 0 0 0 0 0 0 0 0 0 0 0 0 0 0 0 0 0 0 0 0 0 0 0 0 0
0 0 0 0 0 0 0 0 0 0 0 0 0 0 0 0 0 0 0 0 0 0 0 0 0 0 0 0 0 0 0 0 0 0 0 0 0 0 0 0 0 0 0
0 0 0 0 0 0 0 0 0 0 0 0 0 0 0 0 0 0 0 0 0 0 0 0 0 0 0 0 0 0 3 0 0 0 0 0 0 0 0 0 0 0 0
0 0 0 0 0 0 0 0 0 0 0 0 0 0 0 0 0 0 0 0 0 0 0 0 0 0 0 0 0 0 0 0 0 0 0 0 0 0 0 0 0 0 0
0 0 0 0 0 0 0 0 0 0 0 0 0 0 0 0 0 0 0 0 0 0 0 0 0 0 0 0 0 0 0 0 0 0 0 0 0 0 0 0 0 0 0

GEFSMA_con_cape1000_006.txt.gz
Probability
100 100 100 100 100 100 100 100 100 100 100 100 100 100 100 100 94 94 100 100 100 100 100 100 100 100 100 100 100 100 100 100 100 100 100 97 94 100 100 97 58 13 0
100 100 100 100 100 100 100 100 100 100 100 100 100 100 100 100 100 100 100 100 100 100 100 100 100 100 100 100 100 100 100 100 100 100 100 100 97 100 100 94 84 19 0
100 100 100 100 100 100 100 100 100 100 100 100 100 100 100 100 100 100 100 100 100 100 100 100 100 100 100 100 100 100 100 100 100 100 100 100 77 97 84 74 74 26 0
100 100 100 100 100 100 100 100 100 100 100 100 100 100 100 100 100 100 100 100 100 100 100 100 100 100 100 100 100 100 100 100 100 100 100 100 84 77 65 68 19 0 0
100 100 100 100 100 100 100 100 100 100 100 97 94 94 87 90 77 90 97 97 100 100 100 100 100 100 100 100 100 100 100 100 100 100 100 100 100 81 19 10 0 0 0
100 100 100 100 100 100 100 100 100 100 100 94 65 16 77 71 90 77 87 77 74 90 97 100 100 100 100 100 100 100 100 100 100 100 100 100 100 100 16 0 0 0 0
97 94 90 94 97 94 90 94 97 100 97 90 90 55 23 19 26 58 84 87 74 74 90 94 87 94 100 100 100 100 100 100 100 100 100 100 100 100 26 3 0 0 0
97 84 84 74 71 81 90 94 100 94 87 74 52 16 10 3 16 0 39 74 65 61 74 55 74 97 97 100 71 90 100 100 100 100 100 100 100 100 84 16 0 0 0
90 71 65 55 48 58 65 90 94 77 65 52 16 0 0 0 0 10 61 65 81 81 65 19 55 87 97 97 87 23 97 100 100 100 100 100 100 84 65 26 10 0 0
84 71 45 32 35 23 45 58 55 42 29 10 10 0 0 0 0 0 0 29 39 23 32 16 16 32 71 87 84 45 10 3 84 100 100 100 100 94 55 39 74 26 0
65 45 29 26 23 13 23 19 10 13 6 0 0 0 0 3 0 0 0 0 0 3 35 35 48 16 16 42 71 16 0 0 0 42 87 97 97 100 100 100 100 100 55
45 29 16 10 6 10 6 6 0 0 0 0 0 0 0 3 0 0 0 0 0 3 26 48 48 26 0 0 0 0 0 0 0 0 0 3 6 19 61 77 94 97 97
23 10 3 3 3 6 6 3 0 0 0 0 0 0 0 0 0 0 0 0 0 0 6 23 26 26 0 3 6 0 0 0 0 0 0 0 0 0 0 3 10 23 26
13 6 0 0 0 0 0 0 3 0 0 0 0 0 0 0 0 3 0 0 0 0 0 0 0 0 0 0 0 0 0 0 0 0 0 0 0 0 0 0 0 0 0
0 0 0 0 0 0 0 3 3 0 0 0 0 0 0 0 0 0 0 0 0 0 0 0 0 0 0 0 0 0 0 0 0 0 0 0 0 0 0 0 0 0 0
0 0 0 0 0 0 0 0 0 0 0 0 0 0 0 0 0 0 0 0 0 0 0 0 0 0 0 0 0 0 0 0 0 0 0 0 0 0 0 0 0 0 0
0 0 0 0 0 0 0 0 0 0 0 0 0 0 0 0 0 0 0 0 0 0 0 0 0 0 0 0 0 0 0 0 0 0 0 0 0 0 0 0 0 0 0
0 0 0 0 0 0 0 0 0 0 0 0 0 0 0 0 0 0 0 0 0 0 0 0 0 0 0 0 0 0 0 0 0 0 0 0 0 0 0 0 0 0 0
0 0 0 0 0 0 0 0 0 0 0 0 0 0 0 0 0 0 0 0 0 0 0 0 0 0 0 0 0 0 0 0 0 0 0 0 0 0 0 0 0 0 0
0 0 0 0 0 0 0 0 0 0 0 0 0 0 0 0 0 0 0 0 0 0 0 0 0 0 0 0 0 0 0 0 0 0 0 0 0 0 0 0 0 0 0
0 0 0 0 0 0 0 0 0 0 0 0 0 0 0 0 0 0 0 0 0 0 0 0 0 0 0 0 0 0 0 0 0 0 0 0 0 0 0 0 0 0 0
0 0 0 0 0 0 0 0 0 0 0 0 0 0 0 0 0 0 0 0 0 0 0 0 0 0 0 0 0 0 0 0 0 0 0 0 0 0 0 0 0 0 0
0 0 0 0 0 0 0 0 0 0 0 0 0 0 0 0 0 0 0 0 0 0 0 0 0 0 0 0 0 0 0 0 0 0 0 0 0 0 0 0 0 0 0
0 0 0 0 0 0 0 0 0 0 0 0 0 0 0 0 0 0 0 0 0 0 0 0 0 0 0 0 0 0 0 0 0 0 0 0 0 0 0 0 0 0 0
0 0 0 0 0 0 0 0 0 0 0 0 0 0 0 0 0 0 0 0 0 0 0 0 0 0 0 0 0 0 0 0 0 0 0 0 0 0 0 0 0 0 0
3 0 0 0 0 0 0 0 0 0 0 0 0 0 0 0 0 0 0 0 0 0 0 0 0 0 0 0 0 0 0 0 0 0 0 0 0 0 0 0 0 0 0

GEFSMA_con_cape1000_012.txt.gz
Probability
71 81 84 65 84 87 71 77 81 84 74 68 35 19 13 19 3 0 0 100 100 100 100 100 100 100 100 100 100 100 100 100 100 100 100 100 100 100 90 65 42 10 0
68 84 84 55 68 71 65 65 65 61 61 45 29 19 19 10 6 0 0 32 100 100 100 100 100 100 100 100 100 100 100 100 100 100 100 100 100 100 94 94 65 23 6
77 87 87 87 90 68 32 32 35 19 32 13 13 16 3 6 10 10 6 10 68 100 100 100 100 100 100 100 100 100 100 100 100 100 100 100 74 45 55 71 71 45 0
100 100 97 100 100 71 48 29 23 29 16 10 3 0 0 3 6 10 26 42 32 87 100 100 100 100 100 100 100 100 100 100 100 100 100 100 84 29 0 3 23 6 0
100 97 100 97 94 74 71 58 23 6 10 3 0 0 0 0 0 3 6 16 23 32 26 65 100 100 100 100 100 100 100 100 100 100 100 100 100 45 0 0 0 0 0
100 100 94 94 90 94 74 61 29 13 6 6 3 0 0 0 0 0 0 0 0 0 3 6 29 84 100 100 100 100 100 100 100 100 100 100 100 84 3 0 0 0 0
81 87 81 74 74 77 71 58 32 13 3 3 0 0 0 0 0 0 0 0 0 0 0 0 3 3 19 87 97 100 100 100 100 100 100 100 100 100 23 0 0 0 0
48 61 74 65 58 58 61 58 19 3 3 0 0 0 0 0 0 0 0 0 0 0 0 0 0 0 0 3 3 58 97 100 100 100 100 100 100 97 42 3 0 0 0
19 35 52 48 45 35 39 19 13 13 0 0 0 0 0 0 0 0 0 0 0 0 0 0 0 0 0 0 0 0 39 35 90 97 100 94 52 55 10 0 0 0 0
3 13 16 35 29 19 10 10 10 0 0 0 0 0 0 0 0 0 0 0 0 0 0 0 0 0 0 0 0 0 0 0 3 81 100 90 23 3 3 0 3 0 0
0 0 3 0 3 10 6 6 0 0 0 0 0 0 0 0 0 0 0 0 0 0 0 0 0 0 0 0 0 0 0 0 0 0 3 6 16 0 3 3 29 55 32
0 0 0 0 0 0 0 0 0 0 0 0 0 0 0 0 0 0 0 0 0 0 0 0 0 0 0 0 0 0 0 0 0 0 0 0 0 0 3 6 19 55 71
0 0 0 0 0 0 0 0 0 0 0 0 0 0 0 0 0 0 0 0 0 0 0 0 0 0 0 0 0 0 0 0 0 0 0 0 0 0 0 0 0 10 26
0 0 0 0 0 0 0 0 0 0 0 0 0 0 0 0 0 0 0 0 0 0 0 0 0 0 0 0 0 0 0 0 0 0 0 0 0 0 0 0 0 0 0
0 0 0 0 0 0 0 0 0 0 0 0 0 0 0 0 0 0 0 0 0 0 0 0 0 0 0 0 0 0 0 0 0 0 0 0 0 0 0 0 0 0 0
0 0 0 0 0 0 0 0 0 0 0 0 0 0 0 0 0 0 0 0 0 0 0 0 0 0 0 0 0 0 0 0 0 0 0 0 0 0 0 0 0 0 0
0 0 0 0 0 0 0 0 0 0 0 0 0 0 0 0 0 0 0 0 0 0 0 0 0 0 0 0 0 0 0 0 0 0 0 0 0 0 0 0 0 0 0
0 0 0 0 0 0 0 0 0 0 0 0 0 0 0 0 0 0 0 0 0 0 0 0 0 0 0 0 0 0 0 0 0 0 0 0 0 0 0 0 0 0 0
0 0 0 0 0 0 0 0 0 0 0 0 0 0 0 0 0 0 0 0 0 0 0 0 0 0 0 0 0 0 0 0 0 0 0 0 0 0 0 0 0 0 0
0 0 0 0 0 0 0 0 0 0 0 0 0 0 0 0 0 0 0 0 0 0 0 0 0 0 0 0 0 0 0 0 0 0 0 0 0 0 0 0 0 0 0
0 0 0 0 0 0 0 0 0 0 0 0 0 0 0 0 0 0 0 0 0 0 0 0 0 0 0 0 0 0 0 0 0 0 0 0 0 0 0 0 0 0 0
0 0 0 0 0 0 0 0 0 0 0 0 0 0 0 0 0 0 0 0 0 0 0 0 0 0 0 0 0 0 0 0 0 0 0 0 0 0 0 0 0 0 0
0 0 0 0 0 0 0 0 0 0 0 0 0 0 0 0 0 0 0 0 0 0 0 0 0 0 0 0 0 0 0 0 0 0 0 0 0 0 0 0 0 0 0
0 0 0 0 0 0 0 0 0 0 0 0 0 0 0 0 0 0 0 0 0 0 0 0 0 0 0 0 0 0 0 0 0 0 0 0 0 0 0 0 0 0 0
0 0 0 0 0 0 0 0 0 0 0 0 0 0 0 0 0 0 0 0 0 0 0 0 0 0 0 0 0 0 0 0 0 0 0 0 0 0 0 0 0 0 0
0 0 0 0 0 0 0 0 0 0 0 0 0 0 0 0 0 0 0 0 0 0 0 0 0 0 0 0 0 0 0 0 0 0 0 0 0 0 0 0 0 0 0

GEFSMA_con_cape1000_018.txt.gz
Probability
94 58 58 65 68 71 84 97 100 100 100 100 100 100 100 97 87 74 68 100 100 100 100 100 100 100 100 100 100 100 100 100 100 100 100 100 100 100 94 42 3 0 0
94 71 45 39 68 77 90 100 100 97 97 97 97 97 97 97 97 90 94 97 100 100 100 100 100 100 100 100 100 100 100 100 100 100 100 100 100 100 100 90 23 0 0
71 71 42 52 68 81 84 94 97 100 94 97 97 90 84 90 94 97 87 87 87 97 100 100 100 100 100 100 100 100 100 100 100 100 100 100 100 100 100 100 68 13 0
71 71 71 74 81 84 87 97 94 90 94 87 81 77 71 77 84 81 71 61 68 55 94 100 100 100 100 100 100 100 100 100 100 100 100 100 94 71 39 26 29 6 0
84 84 87 94 97 90 94 94 97 87 81 77 71 68 65 55 65 58 55 55 61 61 58 48 94 97 97 100 100 100 100 100 100 100 100 100 100 74 29 10 6 3 0
45 52 55 71 74 87 94 87 84 77 74 74 45 39 52 52 58 42 42 32 23 19 19 29 45 58 94 100 100 100 100 100 100 100 100 100 100 97 55 19 3 0 0
10 13 19 32 39 55 58 74 74 74 74 55 32 29 23 19 23 26 16 10 6 6 13 16 10 23 45 48 77 100 100 100 100 100 100 100 100 100 84 35 6 0 0
3 10 10 16 23 26 26 45 55 61 48 45 26 6 0 0 0 3 6 6 3 3 3 0 6 6 6 19 3 13 77 100 100 100 97 90 84 68 42 23 6 0 0
0 0 0 0 10 13 19 29 39 48 52 32 19 10 0 0 0 0 0 0 3 3 3 3 0 0 0 3 6 0 10 32 84 97 100 100 23 3 0 0 0 0 0
0 0 0 0 0 3 6 10 16 26 29 32 10 6 0 0 0 0 0 0 0 0 0 0 0 0 0 0 0 0 0 0 3 35 65 68 32 0 0 0 0 3 0
0 0 0 0 0 0 3 6 10 13 16 19 6 3 0 0 0 0 0 0 0 0 0 0 0 0 0 0 0 0 0 0 0 0 6 6 10 6 0 0 32 58 39
0 0 0 0 0 0 0 0 3 3 10 6 3 0 0 0 0 0 0 0 0 0 0 0 0 0 0 0 0 0 0 0 0 0 0 0 0 3 6 13 52 52 48
0 0 0 0 0 0 0 0 3 3 6 3 0 0 0 0 0 0 0 0 0 0 0 0 0 0 0 0 0 0 0 0 0 0 0 0 0 0 0 0 0 6 6
0 0 0 0 0 0 0 0 0 0 0 0 0 0 0 0 0 0 0 0 0 0 0 0 0 0 0 0 0 0 0 0 0 0 0 0 0 0 0 0 0 0 0
0 0 0 0 0 0 0 0 0 0 0 0 0 0 0 0 0 0 0 0 0 0 0 0 0 0 0 0 0 0 0 0 0 0 0 0 0 0 0 0 0 0 0
0 0 0 0 0 0 0 0 0 0 0 0 0 0 0 0 0 0 0 0 0 0 0 0 0 0 0 0 0 0 0 0 0 0 0 0 0 0 0 0 0 0 0
0 0 0 0 0 0 0 0 0 0 0 0 0 0 0 0 0 0 0 0 0 0 0 0 0 0 0 0 0 0 0 0 0 0 0 0 0 0 0 0 0 0 0
0 0 0 0 0 0 0 0 0 0 0 0 0 0 0 0 0 0 0 0 0 0 0 0 0 0 0 0 0 0 0 0 0 0 0 0 0 0 0 0 0 0 0
0 0 0 0 0 0 0 0 0 0 0 0 0 0 0 0 0 0 0 0 0 0 0 0 0 0 0 0 0 0 0 0 0 0 0 0 0 0 0 0 0 0 0
0 0 0 0 0 0 0 0 0 0 0 0 0 0 0 0 0 0 0 0 0 0 0 0 0 0 0 0 0 0 0 0 0 0 0 0 0 0 0 0 0 0 0
0 0 0 0 0 0 0 0 0 0 0 0 0 0 0 0 0 0 0 0 0 0 0 0 0 0 0 0 0 0 0 0 0 0 0 0 0 0 0 0 0 0 0
0 0 0 0 0 0 0 0 0 0 0 0 0 0 0 0 0 0 0 0 0 0 0 0 0 0 0 0 0 0 0 0 0 0 0 0 0 0 0 0 0 0 0
0 0 0 0 0 0 0 0 0 0 0 0 0 0 0 0 0 0 0 0 0 0 0 0 0 0 0 0 0 0 0 0 0 0 0 0 0 0 0 0 0 0 0
0 0 0 0 0 0 0 0 0 0 0 0 0 0 0 0 0 0 0 0 0 0 0 0 0 0 0 0 0 0 0 0 0 0 0 0 0 0 0 0 0 0 0
0 0 0 0 0 0 0 0 0 0 0 0 0 0 0 0 0 0 0 0 0 0 0 0 0 0 0 0 0 0 0 0 0 0 0 0 0 0 0 0 0 0 0
0 0 0 0 0 0 0 0 0 0 0 0 0 0 0 0 0 0 0 0 0 0 0 0 0 0 0 0 0 0 0 0 0 0 0 0 0 0 0 0 0 0 0

GEFSMA_con_cape1000_024.txt.gz
Probability
100 100 100 100 100 97 97 100 97 97 100 100 100 100 100 100 100 100 100 100 100 100 100 100 100 100 100 100 100 100 100 100 100 100 100 100 97 97 97 97 97 77 16
100 100 100 100 97 100 100 100 100 100 100 100 100 100 100 100 100 100 94 100 100 100 100 100 97 100 100 100 100 100 100 100 100 100 100 100 97 97 97 97 97 90 10
100 100 97 97 97 97 97 100 100 100 100 100 100 100 100 100 100 94 90 90 97 100 97 94 97 100 100 100 100 100 100 100 100 100 100 100 94 94 97 97 97 97 26
77 87 71 71 90 94 97 97 100 97 97 97 100 100 100 100 100 100 90 90 90 87 94 94 94 97 97 100 100 100 100 100 100 100 100 100 100 90 94 97 97 94 39
29 35 35 42 48 45 58 61 74 94 97 100 100 100 100 100 100 97 97 94 90 94 90 94 94 94 94 94 100 100 100 100 100 100 100 100 100 100 94 90 97 71 32
16 13 6 16 13 13 29 55 68 87 94 97 90 90 90 90 97 100 97 90 94 90 87 90 94 90 90 97 100 100 100 100 100 100 100 100 100 100 97 65 39 32 13
10 29 10 10 13 3 16 19 32 58 71 74 81 81 81 84 87 94 97 94 97 94 94 90 90 90 87 84 87 97 100 100 100 100 100 100 100 100 100 65 16 0 0
13 10 16 10 3 29 26 29 61 45 26 39 52 52 39 35 81 74 94 94 90 87 87 74 94 94 90 81 58 68 97 100 100 100 100 100 100 100 100 84 23 3 0
6 13 10 6 6 3 0 13 42 48 26 29 39 45 29 19 26 32 81 94 100 97 87 77 77 87 81 84 87 19 65 74 87 94 100 97 90 71 52 52 35 10 3
6 0 0 0 10 6 10 13 10 19 55 32 52 81 68 61 32 19 35 81 97 100 94 71 52 65 71 68 81 19 19 23 42 58 74 81 77 32 10 10 61 58 10
6 0 0 0 6 3 10 23 32 29 26 35 32 45 58 81 81 55 19 32 71 90 94 94 84 77 68 61 71 26 0 0 0 13 29 26 29 29 19 32 65 84 68
0 0 0 0 3 3 16 23 26 26 45 52 65 48 55 55 55 68 58 58 61 74 94 90 81 74 58 48 16 0 0 0 0 0 0 0 3 10 16 23 42 65 71
0 0 0 3 10 10 16 23 29 39 35 52 65 71 71 77 74 74 65 58 71 81 94 74 58 55 19 39 23 0 0 0 0 0 0 0 0 0 3 3 6 6 29
0 0 3 3 6 3 0 13 13 26 35 55 48 84 97 87 84 84 87 94 97 90 90 39 32 26 19 23 0 0 0 0 0 0 0 0 0 0 0 0 0 0 0
0 0 0 0 0 3 3 10 6 13 19 35 52 68 90 90 94 97 100 100 100 90 65 32 19 13 16 13 0 0 0 0 0 0 0 0 0 0 0 0 0 0 0
29 13 0 0 0 0 0 10 6 6 16 39 65 68 77 71 74 81 97 97 94 90 61 23 13 6 6 3 0 3 0 0 0 0 0 0 0 0 0 0 0 0 0
32 26 6 0 0 0 0 6 3 6 13 32 39 42 55 65 74 77 84 90 84 84 32 6 3 3 3 0 0 0 0 0 0 0 0 0 0 0 0 0 0 0 0
35 26 10 0 0 0 0 0 0 0 0 10 6 13 19 26 39 42 52 52 52 29 23 3 0 0 0 0 0 0 0 0 0 0 0 0 0 0 0 0 0 0 0
26 23 13 0 0 0 0 0 0 0 0 0 0 3 10 16 19 19 16 10 16 6 6 0 0 0 0 0 0 0 0 0 0 0 0 0 0 0 0 0 0 0 0
19 16 10 0 0 0 0 0 0 0 0 0 0 0 6 0 3 6 3 3 6 6 0 0 0 0 0 0 0 0 0 0 0 0 0 0 0 0 0 0 0 0 0
0 6 3 0 0 0 0 0 0 0 0 0 0 0 0 0 0 0 0 3 0 0 0 0 0 0 0 0 0 0 0 0 0 0 0 0 0 0 0 0 0 0 0
0 3 3 0 0 0 0 0 0 0 0 0 0 0 0 0 0 0 0 0 0 0 0 0 0 0 0 0 0 0 0 0 0 0 0 0 0 0 0 0 0 0 0
0 0 0 0 0 0 0 0 0 0 0 0 0 0 0 0 0 0 0 0 0 0 0 0 0 0 0 0 0 0 0 0 0 0 0 0 0 0 0 0 0 0 0
0 0 0 0 0 0 0 0 0 0 0 0 0 0 0 0 0 0 0 0 0 0 0 0 0 0 0 0 0 0 0 0 0 0 0 0 0 0 0 0 0 0 0
0 0 0 0 0 0 0 0 0 0 0 0 0 0 0 0 0 0 0 0 0 0 0 0 0 0 0 0 0 0 0 0 0 0 0 0 0 0 0 0 0 0 0
0 0 0 0 0 0 0 0 0 0 0 0 0 0 0 0 0 0 0 0 0 0 0 0 0 0 0 0 0 0 0 0 0 0 0 0 0 0 0 0 0 0 0

GEFSMA_con_cape1000_030.txt.gz
Probability
100 100 100 100 100 100 100 100 100 100 100 100 100 97 97 100 97 100 100 100 100 100 100 100 100 100 100 100 100 100 100 100 100 100 100 100 100 100 100 100 100 100 94
100 100 100 100 97 97 97 97 97 100 100 97 97 97 97 100 100 100 97 97 97 100 100 100 100 100 100 100 100 100 100 100 100 100 100 100 97 97 97 100 100 100 94
100 100 100 97 97 94 94 97 100 100 97 97 97 100 100 100 97 94 87 87 94 97 100 100 100 100 100 100 100 100 100 100 100 100 100 100 94 94 94 97 97 97 81
87 81 84 84 90 81 81 87 94 94 94 97 100 97 97 100 100 97 87 87 94 97 100 100 100 100 100 100 100 100 100 100 100 100 100 100 100 94 84 84 94 77 42
58 58 81 87 77 84 87 52 61 87 77 77 71 84 94 97 97 94 87 90 94 94 100 100 100 100 100 100 100 100 100 100 100 100 100 100 100 100 74 55 52 52 35
39 65 61 71 71 58 77 81 87 87 87 81 45 48 74 77 90 84 90 87 94 97 97 94 97 97 100 100 100 100 100 100 100 100 100 100 100 100 84 58 32 32 26
35 58 58 71 55 52 74 55 58 48 52 68 61 52 52 61 71 84 87 87 87 94 94 87 94 94 94 100 100 100 100 100 100 100 100 100 100 100 100 74 29 19 19
48 26 74 52 52 84 55 77 87 71 45 48 52 35 23 23 65 52 81 87 87 90 90 94 90 90 90 94 87 97 100 100 100 100 100 100 100 100 100 87 52 10 10
42 42 32 45 58 52 42 84 84 77 42 48 45 48 23 10 35 42 65 81 90 90 87 87 87 90 87 90 90 71 94 94 94 97 97 100 100 100 97 97 71 35 10
45 39 32 42 58 71 68 65 52 74 71 39 55 65 42 26 16 13 23 35 68 94 94 94 94 94 94 87 81 68 87 81 81 84 87 87 87 87 87 90 94 87 42
77 52 45 45 52 77 77 74 74 65 52 48 42 45 45 52 39 23 3 19 45 77 87 97 94 94 94 90 68 48 32 29 35 48 48 58 65 77 81 87 94 90 87
94 81 55 71 65 68 77 81 81 71 61 55 55 48 35 35 42 29 23 16 26 68 87 97 97 97 90 61 32 23 10 6 10 10 10 19 29 29 35 52 58 71 71
94 90 48 71 65 77 81 81 84 77 65 65 55 55 52 35 35 35 29 23 26 68 90 87 87 90 77 45 13 10 3 0 0 0 0 0 3 10 10 16 13 23 29
81 84 68 71 84 77 58 81 74 68 68 71 39 58 55 42 45 52 39 29 23 48 71 61 68 65 68 35 10 0 0 0 0 0 0 0 0 0 0 0 3 3 3
65 74 74 77 87 77 87 90 61 71 74 71 52 58 55 55 68 65 58 55 16 10 32 42 42 42 32 16 0 0 0 0 0 0 0 0 0 0 0 0 0 0 0
35 55 65 65 77 77 87 87 71 71 81 71 61 58 61 45 48 48 58 58 45 26 13 32 29 29 19 10 0 0 0 0 0 0 0 0 0 0 0 0 0 0 0
3 19 32 55 58 61 68 90 71 74 68 55 55 45 55 52 48 52 52 58 58 48 0 10 16 19 10 0 0 0 0 0 0 0 0 0 0 0 0 0 0 0 0
3 3 3 19 23 32 58 61 65 42 48 45 39 42 42 16 45 45 45 45 45 39 10 0 6 0 0 0 0 0 0 0 0 0 0 0 0 0 0 0 0 0 0
0 0 0 3 10 19 19 39 61 55 39 29 26 19 16 23 29 23 26 26 29 13 6 0 0 0 0 0 0 0 0 0 0 0 0 0 0 0 0 0 0 0 0
0 0 0 0 3 0 10 16 26 45 29 32 23 10 0 10 16 16 3 6 10 3 0 0 0 0 0 0 0 0 0 0 0 0 0 0 0 0 0 0 0 0 0
0 0 0 0 0 3 0 0 3 3 26 23 19 6 0 0 0 0 0 0 3 0 0 0 0 0 0 0 0 0 0 0 0 0 0 0 0 0 0 0 0 0 0
0 0 0 0 0 0 0 0 0 0 0 10 6 3 0 0 0 0 0 0 0 0 0 0 0 0 0 0 0 0 0 0 0 0 0 0 0 0 0 0 0 0 0
0 0 0 0 0 0 0 0 0 0 3 6 10 0 0 0 0 0 0 0 0 0 0 0 0 0 0 0 0 0 0 0 0 0 0 0 0 0 0 0 0 0 0
0 0 0 0 0 0 0 0 0 0 0 3 0 0 0 0 0 0 0 0 0 0 0 0 0 0 0 0 0 0 0 0 0 0 0 0 0 0 0 0 0 0 0
0 0 0 0 0 0 0 0 0 0 0 0 0 0 0 0 0 0 0 0 0 0 0 0 0 0 0 0 0 0 0 0 0 0 0 0 0 0 0 0 0 0 0
0 0 0 0 0 0 0 0 0 0 0 0 0 0 0 0 0 0 0 0 0 0 0 0 0 0 0 0 0 0 0 0 0 0 0 0 0 0 0 0 0 0 0

GEFSMA_con_cape1000_036.txt.gz
Probability
100 84 68 65 61 81 90 84 81 87 87 90 84 84 87 94 90 94 68 94 87 84 84 90 90 94 94 97 97 100 100 100 100 100 100 100 100 100 100 100 97 97 94
90 71 61 45 42 45 48 58 52 52 42 58 65 71 61 68 81 84 84 87 90 84 77 77 81 90 90 94 97 100 100 100 100 100 100 100 100 100 100 100 100 94 74
87 61 32 23 13 23 23 26 26 13 10 19 26 29 35 42 48 58 65 71 74 77 74 74 77 81 84 90 94 97 100 100 100 100 100 100 100 100 100 100 100 97 84
81 39 23 10 16 23 6 0 6 6 3 0 6 0 3 3 16 29 45 52 58 61 77 81 81 81 84 87 94 97 100 100 100 100 100 100 100 100 97 97 97 90 65
55 29 16 10 3 6 0 0 0 0 0 0 0 0 0 0 0 10 19 32 42 48 61 74 81 81 84 87 97 100 100 100 100 100 100 100 100 100 94 74 77 68 29
35 23 13 6 0 0 0 0 0 0 0 0 0 0 0 0 0 0 0 3 16 32 48 65 68 77 84 90 94 94 94 94 97 100 100 100 100 100 90 61 39 32 29
19 10 3 3 0 0 0 0 0 0 0 0 0 0 0 0 0 0 0 6 13 23 29 58 65 68 74 90 87 87 90 90 94 90 100 100 100 100 97 65 39 19 23
10 6 0 0 0 0 0 0 0 0 0 0 0 0 0 0 0 0 0 0 0 6 19 29 42 55 61 68 65 74 77 87 87 87 87 97 97 90 87 81 61 16 10
3 0 0 0 0 0 0 0 0 0 0 0 0 0 0 0 0 0 0 0 0 0 6 6 23 35 39 52 52 48 71 71 81 84 81 87 74 74 77 74 77 48 16
0 0 0 0 0 0 0 0 0 0 0 0 0 0 0 0 0 0 0 0 0 0 0 3 6 26 29 32 39 42 52 55 58 81 77 81 84 74 68 77 90 94 58
0 0 0 0 0 0 0 0 0 0 0 0 0 0 0 0 0 0 0 0 0 0 0 0 3 6 16 23 26 23 35 32 32 39 65 74 71 61 48 58 77 90 97
0 0 0 0 0 0 0 0 0 0 0 0 0 0 0 0 0 0 0 0 0 0 0 0 0 0 0 13 16 26 29 16 16 23 19 29 35 26 39 48 58 65 84
0 0 0 0 3 0 0 0 0 0 0 0 0 0 0 0 0 0 0 0 0 0 0 0 0 0 0 13 13 16 16 16 0 0 3 6 10 10 13 13 29 39 55
0 0 0 0 0 3 0 0 0 0 0 0 0 0 0 0 0 0 0 0 0 0 0 0 0 0 0 0 3 6 6 0 0 3 0 0 0 3 6 6 6 10 10
0 0 0 0 0 0 0 0 0 0 0 0 0 0 0 0 0 0 0 0 0 0 0 0 0 0 0 0 0 3 0 0 0 0 0 0 0 0 0 0 0 0 0
0 0 0 0 0 0 0 0 0 0 0 0 0 0 0 0 0 0 0 0 0 0 0 0 0 0 0 0 0 0 0 0 0 0 0 0 0 0 0 0 0 0 0
0 0 0 0 0 0 0 0 0 0 0 0 0 0 0 0 0 0 0 0 0 0 0 0 0 0 0 0 0 0 0 0 0 0 0 0 0 0 0 0 0 0 0
0 0 0 0 0 0 0 0 0 0 0 0 0 0 0 0 0 0 0 0 0 0 0 0 0 0 0 0 0 0 0 0 0 0 0 0 0 0 0 0 0 0 0
0 0 0 0 0 0 0 0 0 0 0 0 0 0 0 0 0 0 0 0 0 0 0 0 0 0 0 0 0 0 0 0 0 0 0 0 0 0 0 0 0 0 0
0 0 0 0 0 0 0 0 0 0 0 0 0 0 0 0 0 0 0 0 0 0 0 0 0 0 0 0 0 0 0 0 0 0 0 0 0 0 0 0 0 0 0
0 0 0 0 0 0 0 0 0 0 0 0 0 0 0 0 0 0 0 0 0 0 0 0 0 0 0 0 0 0 0 0 0 0 0 0 0 0 0 0 0 0 0
0 0 0 0 0 0 0 0 0 0 0 0 0 0 0 0 0 0 0 0 0 0 0 0 0 0 0 0 0 0 0 0 0 0 0 0 0 0 0 0 0 0 0
0 0 0 0 0 0 0 0 0 0 0 0 0 0 0 0 0 0 0 0 0 0 0 0 0 0 0 0 0 0 0 0 0 0 0 0 0 0 0 0 0 0 0
0 0 0 0 0 0 0 0 0 0 0 0 0 0 0 0 0 0 0 0 0 0 0 0 0 0 0 0 0 0 0 0 0 0 0 0 0 0 0 0 0 0 0
0 0 0 0 0 0 0 0 0 0 0 0 0 0 0 0 0 0 0 0 0 0 0 0 0 0 0 0 0 0 0 0 0 0 0 0 0 0 0 0 0 0 0
0 0 0 0 0 0 0 0 0 0 0 0 0 0 0 0 0 0 0 0 0 0 0 0 0 0 0 0 0 0 0 0 0 0 0 0 0 0 0 0 0 0 0

GEFSMA_con_cape1000_042.txt.gz
Probability
87 90 94 84 77 84 74 74 84 84 90 90 90 90 87 87 87 87 94 94 97 94 94 94 100 97 90 94 87 87 97 94 94 94 94 94 97 100 100 100 100 100 97
77 74 55 52 35 29 35 48 58 55 52 58 74 61 68 61 61 77 87 87 87 90 94 97 97 94 94 94 87 87 94 97 94 84 84 94 94 84 90 97 97 94 90
74 61 42 29 23 6 10 13 6 10 6 6 19 26 29 42 52 48 61 68 71 74 84 90 97 94 94 87 84 90 90 97 97 90 77 84 90 84 84 87 81 74 42
61 48 29 26 6 3 0 0 0 0 0 0 0 0 0 0 0 0 6 16 42 48 71 81 97 94 87 90 87 87 90 87 90 87 87 87 81 81 68 61 52 35 10
52 32 26 19 3 0 0 0 0 0 0 0 0 0 0 0 0 0 0 0 3 23 32 32 71 81 87 87 87 90 87 87 84 81 90 90 87 77 58 55 45 32 16
42 16 19 3 0 0 0 0 0 0 0 0 0 0 0 0 0 0 0 0 0 0 0 13 39 58 74 87 94 94 94 94 87 87 87 84 87 77 61 48 39 29 10
16 16 10 3 0 0 0 0 0 0 0 0 0 0 0 0 0 0 0 0 0 0 0 0 19 35 48 68 90 94 94 94 90 87 81 74 68 58 55 45 35 29 23
13 19 3 3 0 0 0 0 0 0 0 0 0 0 0 0 0 0 0 0 0 0 0 0 13 23 42 58 58 68 97 97 90 87 71 61 61 55 48 52 35 23 16
0 10 3 3 0 0 0 0 0 0 0 0 0 0 0 0 0 0 0 0 0 0 0 0 0 10 23 42 48 39 81 90 90 81 81 68 55 45 35 35 42 32 16
0 0 0 0 0 0 0 0 0 0 0 0 0 0 0 0 0 0 0 0 0 0 0 0 0 3 13 29 32 23 35 61 90 84 81 71 55 42 39 39 52 55 35
0 0 0 0 0 0 0 0 0 0 0 0 0 0 0 0 0 0 0 0 0 0 0 0 0 0 0 16 29 23 19 35 45 65 68 71 61 48 42 45 55 61 81
0 0 0 0 0 0 0 0 0 0 0 0 0 0 0 0 0 0 0 0 0 0 0 0 0 0 0 0 3 6 13 6 13 29 29 39 45 45 35 45 55 61 68
0 0 0 0 0 0 0 0 0 0 0 0 0 0 0 0 0 0 0 0 0 0 0 0 0 0 0 0 0 3 3 3 3 3 16 23 23 23 32 35 35 42 45
0 0 0 0 0 0 0 0 0 0 0 0 0 0 0 0 0 0 0 0 0 0 0 0 0 0 0 0 0 0 3 0 3 0 0 6 6 10 13 3 6 13 13
0 0 0 0 0 0 0 0 0 0 0 0 0 0 0 0 0 0 0 0 0 0 0 0 0 0 0 0 0 0 0 0 0 0 0 0 0 0 0 3 3 3 3
0 0 0 0 0 0 0 0 0 0 0 0 0 0 0 0 0 0 0 0 0 0 0 0 0 0 0 0 0 0 0 0 0 0 0 0 0 0 0 0 0 0 0
0 0 0 0 0 0 0 0 0 0 0 0 0 0 0 0 0 0 0 0 0 0 0 0 0 0 0 0 0 0 0 0 0 0 0 0 0 0 0 0 0 0 0
0 0 0 0 0 0 0 0 0 0 0 0 0 0 0 0 0 0 0 0 0 0 0 0 0 0 0 0 0 0 0 0 0 0 0 0 0 0 0 0 0 0 0
0 0 0 0 0 0 0 0 0 0 0 0 0 0 0 0 0 0 0 0 0 0 0 0 0 0 0 0 0 0 0 0 0 0 0 0 0 0 0 0 0 0 0
0 0 0 0 0 0 0 0 0 0 0 0 0 0 0 0 0 0 0 0 0 0 0 0 0 0 0 0 0 0 0 0 0 0 0 0 0 0 0 0 0 0 0
0 0 0 0 0 0 0 0 0 0 0 0 0 0 0 0 0 0 0 0 0 0 0 0 0 0 0 0 0 0 0 0 0 0 0 0 0 0 0 0 0 0 0
0 0 0 0 0 0 0 0 0 0 0 0 0 0 0 0 0 0 0 0 0 0 0 0 0 0 0 0 0 0 0 0 0 0 0 0 0 0 0 0 0 0 0
0 0 0 0 0 0 0 0 0 0 0 0 0 0 0 0 0 0 0 0 0 0 0 0 0 0 0 0 0 0 0 0 0 0 0 0 0 0 0 0 0 0 0
0 0 0 0 0 0 0 0 0 0 0 0 0 0 0 0 0 0 0 0 0 0 0 0 0 0 0 0 0 0 0 0 0 0 0 0 0 0 0 0 0 0 0
0 0 0 0 0 0 0 0 0 0 0 0 0 0 0 0 0 0 0 0 0 0 0 0 0 0 0 0 0 0 0 0 0 0 0 0 0 0 0 0 0 0 0
0 0 0 0 0 0 0 0 0 0 0 0 0 0 0 0 0 0 0 0 0 0 0 0 0 0 0 0 0 0 0 0 0 0 0 0 0 0 0 0 0 0 0

GEFSMA_con_cape1000_048.txt.gz
Probability
97 97 100 100 94 74 87 97 94 94 94 90 94 94 90 94 87 81 94 97 97 97 97 100 100 100 100 100 100 97 97 97 87 81 87 90 94 100 100 100 97 97 94
94 94 90 97 97 84 71 87 74 77 84 87 90 90 94 94 94 90 90 90 97 97 97 97 97 97 97 97 97 94 94 94 84 87 84 84 81 87 94 97 97 97 97
94 97 87 94 94 87 97 100 84 77 84 74 74 74 84 87 84 84 84 84 84 87 94 94 97 97 97 97 97 94 90 87 84 81 74 71 61 74 90 94 94 94 90
84 87 87 84 87 84 84 87 77 77 71 55 65 61 68 77 68 71 71 77 74 68 77 84 84 90 87 90 94 94 94 94 84 77 68 65 58 55 58 68 81 68 39
52 74 94 68 74 71 61 55 42 61 48 48 42 55 32 42 42 35 35 32 45 42 39 55 74 77 77 81 90 97 97 97 94 77 71 65 71 52 35 42 39 32 13
35 39 48 45 39 55 61 52 55 65 55 35 10 6 16 13 13 6 6 3 10 6 10 16 35 42 71 77 90 94 97 94 90 81 71 71 61 61 35 32 23 26 16
35 35 35 45 45 39 42 26 48 35 26 23 10 3 0 0 0 0 3 3 0 0 3 3 6 23 32 52 58 84 90 94 94 84 77 74 68 65 45 32 23 16 16
26 16 35 23 32 29 39 52 58 26 16 10 3 3 0 0 0 0 0 0 0 0 0 0 3 16 23 39 29 48 77 81 87 90 87 81 71 68 52 35 35 16 13
13 23 19 26 26 29 35 39 45 29 13 6 0 0 0 0 0 0 0 0 0 0 0 3 3 6 26 39 58 32 68 81 90 97 97 87 68 48 45 48 42 32 19
0 0 3 13 16 23 23 19 23 29 23 16 6 6 0 0 0 0 0 0 0 0 0 0 0 13 23 35 55 35 39 52 65 90 97 90 84 48 42 45 55 61 42
0 0 0 0 3 13 19 29 19 26 26 16 6 0 0 0 0 0 0 0 0 0 0 0 0 10 16 32 65 29 13 19 32 55 90 90 81 74 55 52 58 58 55
0 0 0 0 0 0 3 16 29 32 23 19 19 6 10 0 0 0 0 0 0 0 0 0 0 13 16 23 13 0 0 3 10 13 58 77 74 71 61 58 58 58 58
0 0 0 0 0 0 0 3 13 13 16 42 39 29 19 3 0 0 0 0 0 0 0 0 3 10 3 13 13 0 0 0 0 0 6 19 39 58 58 58 61 55 61
0 0 0 0 0 0 0 0 0 6 16 29 19 42 55 23 6 3 3 3 6 3 3 0 3 3 3 3 0 0 13 0 0 0 0 0 6 19 32 32 39 42 42
0 0 0 0 0 0 0 0 0 0 10 23 16 32 39 45 39 19 19 13 16 13 16 19 3 10 13 6 0 6 23 0 0 0 0 0 0 0 3 10 10 6 10
0 0 0 0 0 0 0 0 0 0 3 10 16 26 26 32 45 39 35 32 19 16 13 10 10 3 3 0 0 10 3 0 0 0 0 0 0 0 0 0 0 0 0
0 0 0 0 0 0 0 0 0 0 0 0 0 0 10 26 35 32 23 35 29 35 32 16 16 26 19 0 0 6 0 0 0 0 0 0 0 0 0 0 0 0 0
0 0 0 0 0 0 0 0 0 0 0 0 0 0 0 0 19 32 39 19 32 45 32 35 32 32 19 13 6 6 0 0 0 0 0 0 0 0 0 0 0 0 0
0 0 0 0 0 0 0 0 0 0 0 0 0 0 0 0 3 19 35 32 29 16 29 45 35 42 13 10 10 3 0 0 0 0 0 0 0 0 0 0 0 0 0
0 0 0 0 0 0 0 0 0 0 0 0 0 0 0 0 0 0 3 23 32 48 45 32 29 52 19 13 6 0 0 0 0 0 0 0 0 0 0 0 0 0 0
0 0 0 0 0 0 0 0 0 0 0 0 0 0 0 0 0 0 0 6 10 39 52 35 35 39 19 16 6 3 0 0 0 0 0 0 0 0 0 0 0 0 0
0 0 0 0 0 0 0 0 0 0 0 0 0 0 0 0 0 0 0 0 0 0 19 35 35 39 29 13 13 3 0 0 0 0 0 0 0 0 0 0 0 0 0
0 0 0 0 0 0 0 0 0 0 0 0 0 0 0 0 0 0 0 0 0 0 0 16 35 26 32 19 13 3 3 0 0 0 0 0 0 0 0 0 0 0 0
0 0 0 0 0 0 0 0 0 0 0 0 0 0 0 0 0 0 0 0 0 0 0 0 13 32 6 23 16 10 3 0 0 0 0 0 0 0 0 0 0 0 0
0 0 0 0 0 0 0 0 0 0 0 0 0 0 0 0 0 0 0 0 0 0 0 0 0 0 0 0 0 13 0 0 0 0 0 0 0 0 0 0 0 0 0
0 0 0 0 0 0 0 0 0 3 0 0 0 0 0 0 0 0 0 0 0 0 0 0 0 0 0 0 0 3 0 0 0 0 0 0 0 0 0 0 0 0 0

GEFSMA_con_cape1000_054.txt.gz
Probability
100 100 100 100 97 84 84 84 87 90 94 84 90 90 87 84 71 65 71 81 84 94 100 100 100 100 100 100 97 94 94 90 97 94 94 90 90 94 97 97 97 94 94
100 97 90 84 77 77 71 77 74 77 87 81 74 71 71 71 77 74 71 81 84 94 97 97 100 100 100 100 100 94 94 94 90 87 94 94 87 90 90 94 94 94 90
97 90 90 81 71 68 68 65 65 71 58 55 58 55 58 61 71 68 61 61 71 90 90 94 97 100 100 100 100 100 97 97 90 81 90 74 77 77 77 84 90 90 81
90 84 81 77 65 58 48 42 39 42 39 45 45 39 52 55 58 61 58 58 65 61 77 84 94 97 97 97 100 100 100 100 90 77 71 65 61 68 65 68 77 81 61
74 74 74 58 45 52 45 26 23 32 26 29 29 29 35 35 32 26 48 45 52 58 61 77 94 97 97 97 97 100 100 100 97 77 71 71 71 58 45 45 52 55 35
61 58 52 48 52 52 48 32 26 29 23 16 10 6 16 19 16 13 19 23 29 35 42 61 74 84 97 97 97 100 100 100 97 90 81 81 74 68 29 19 26 29 19
48 68 42 35 39 42 42 29 32 23 16 10 10 6 6 3 3 10 19 13 16 16 23 35 45 48 35 77 90 94 100 100 97 97 90 77 81 71 39 26 16 13 13
35 13 35 35 35 26 26 19 23 13 10 10 3 0 0 0 6 3 16 13 13 13 19 23 35 58 55 29 10 71 87 97 97 97 97 84 74 58 48 26 16 13 10
10 10 10 16 16 13 19 19 16 13 6 13 10 0 0 0 0 10 3 6 0 0 0 6 13 45 48 52 48 13 71 81 97 94 97 90 74 55 45 39 23 16 3
6 6 6 3 10 13 13 10 10 13 13 3 6 6 6 3 0 0 6 10 0 0 3 3 3 26 39 52 52 26 26 48 81 94 90 87 74 55 45 45 52 45 19
10 6 3 3 0 3 6 13 6 6 6 3 3 3 3 16 10 0 0 0 10 10 6 10 13 23 35 45 52 26 6 10 32 71 84 77 77 71 58 55 65 61 52
0 0 0 6 0 0 0 3 0 3 3 3 3 0 3 3 6 3 0 0 3 10 23 29 29 42 42 32 13 6 13 6 3 19 32 52 68 74 71 71 68 74 74
0 0 0 3 0 0 0 0 0 0 0 0 0 3 3 3 10 6 6 3 0 10 35 35 42 48 29 39 3 0 3 3 0 0 6 10 23 39 55 61 68 74 74
0 0 0 0 0 0 0 0 0 0 0 0 0 3 3 0 6 10 13 13 0 0 23 19 32 39 42 35 0 0 0 0 0 0 0 3 6 6 10 19 32 29 35
0 0 0 0 0 0 0 0 0 0 0 0 0 0 0 0 0 6 6 19 3 0 0 35 29 58 45 13 0 6 3 0 0 0 0 0 3 3 0 0 3 10 13
0 3 3 0 0 0 0 0 3 0 0 0 0 0 0 0 0 0 3 6 16 6 6 10 29 26 16 3 0 10 0 0 0 0 0 0 0 0 0 0 0 0 0
0 0 0 0 0 0 0 0 0 0 0 0 0 0 0 0 0 0 3 6 3 6 3 13 13 19 13 3 0 3 0 0 0 0 0 0 0 0 0 0 0 0 0
0 0 0 0 0 0 0 0 0 0 0 0 0 0 0 0 0 0 0 3 3 3 3 0 3 3 13 13 6 0 0 0 0 0 0 0 0 0 0 0 0 0 0
0 0 0 0 0 0 0 0 0 0 0 0 0 0 0 0 0 0 0 0 3 3 3 3 0 0 0 6 3 0 0 0 0 0 0 0 0 0 0 0 0 0 0
0 0 0 0 0 0 0 0 0 0 0 0 0 0 0 0 0 0 0 0 0 0 0 0 0 0 0 3 0 0 0 0 0 0 0 0 0 0 0 0 0 0 0
0 0 0 0 0 0 0 0 0 0 0 0 0 0 0 0 0 0 0 0 0 0 0 0 0 3 0 0 0 0 0 0 0 0 0 0 0 0 0 0 0 0 0
0 0 0 0 0 0 0 0 0 0 0 0 0 0 0 0 0 0 0 0 0 0 0 0 0 0 0 0 0 0 0 0 0 0 0 0 0 0 0 0 0 0 0
0 0 0 0 0 0 0 0 0 0 0 0 0 3 0 0 0 0 0 0 0 0 0 0 0 0 0 0 0 0 0 0 0 0 0 0 0 0 0 0 0 0 0
0 0 0 0 0 0 0 0 0 0 0 0 0 3 0 0 0 0 0 0 0 0 0 0 0 0 0 0 0 0 0 0 0 0 0 0 0 0 0 0 0 0 0
0 0 0 0 0 0 0 0 0 0 0 0 0 3 0 0 0 0 0 0 0 0 0 0 0 0 0 0 0 0 0 0 0 0 0 0 0 0 0 0 0 0 0
0 0 0 0 0 0 0 0 0 0 0 0 0 0 0 0 0 0 0 0 0 0 0 0 0 0 0 0 0 0 0 0 0 0 0 0 0 0 0 0 0 0 0

GEFSMA_con_cape1000_060.txt.gz
Probability
81 58 39 32 45 48 58 65 61 61 55 58 55 52 42 42 39 32 16 65 87 87 87 90 84 90 90 97 97 97 100 100 100 100 100 100 100 100 100 97 97 94 94
58 42 35 23 19 23 29 32 32 32 35 35 45 42 23 35 32 23 19 39 74 77 81 81 84 87 90 94 94 97 97 100 97 97 100 97 97 97 97 97 97 97 94
35 26 23 26 16 13 10 16 10 6 10 13 19 26 26 23 16 16 23 19 35 58 71 71 77 81 87 94 94 94 97 97 97 97 94 94 90 90 97 97 97 94 81
35 23 19 13 16 16 13 6 3 3 6 3 3 3 6 10 10 10 10 13 13 23 52 65 61 68 74 94 94 94 94 97 97 97 94 94 90 81 77 74 77 81 48
16 13 6 6 6 13 10 3 3 0 0 0 0 0 3 6 6 10 10 10 13 10 13 32 58 65 77 94 94 90 94 97 97 94 90 87 87 77 58 65 71 61 39
10 3 0 0 0 0 0 0 0 0 0 0 0 3 0 3 6 6 6 6 10 6 6 6 16 42 84 94 94 94 94 97 100 94 90 90 81 71 55 48 42 35 35
3 0 0 0 0 0 0 0 0 0 0 0 0 0 0 0 0 3 3 3 6 6 6 6 6 13 29 74 90 94 97 97 100 94 90 84 81 65 35 29 13 19 23
0 0 0 0 0 0 0 0 0 0 0 0 0 0 0 0 0 0 0 0 0 0 3 3 3 6 6 10 19 81 100 100 100 100 97 94 84 68 32 26 16 10 10
0 0 0 0 0 0 0 0 0 0 0 0 0 0 0 0 0 0 0 0 0 0 0 0 3 3 6 3 10 10 87 94 100 100 100 97 71 42 29 26 26 19 6
0 0 0 0 0 0 0 0 0 0 0 0 0 0 0 0 0 0 0 0 0 0 0 0 3 0 0 3 3 3 16 52 87 97 100 97 81 42 26 23 39 35 16
0 0 0 0 0 0 0 0 0 0 0 0 0 0 0 0 0 0 0 0 0 0 0 0 0 0 0 0 0 0 0 6 29 71 94 94 94 74 42 39 55 55 48
0 0 0 0 0 0 0 0 0 0 0 0 0 0 0 0 0 0 0 0 0 0 0 0 0 0 0 0 0 0 0 0 0 10 29 55 77 81 68 65 55 71 68
0 0 0 0 0 0 0 0 0 0 0 0 0 0 0 0 0 0 0 0 0 0 0 0 0 0 0 0 0 3 0 0 0 0 0 6 13 32 42 58 68 71 71
0 0 0 0 0 0 0 0 0 0 0 0 0 0 0 0 0 0 0 0 0 0 0 0 0 0 0 0 0 0 0 0 0 0 0 0 0 0 3 3 13 35 45
0 0 0 0 0 0 0 0 0 0 0 0 0 0 0 0 0 0 0 0 0 0 0 0 0 0 0 0 0 0 0 0 0 0 0 0 0 0 0 0 0 3 3
0 0 0 0 0 0 0 0 0 0 0 0 0 0 0 0 0 0 0 0 0 0 0 0 0 0 0 0 0 0 0 0 0 0 0 0 0 0 0 0 0 0 0
0 0 0 0 0 0 0 0 0 0 0 0 0 0 0 0 0 0 0 0 0 0 0 0 0 0 0 0 0 0 0 0 0 0 0 0 0 0 0 0 0 0 0
0 0 0 0 0 0 0 0 0 0 0 0 0 0 0 0 0 0 0 0 0 0 0 0 0 0 0 0 0 0 0 0 0 0 0 0 0 0 0 0 0 0 0
0 0 0 0 0 0 0 0 0 0 0 0 0 0 0 0 0 0 0 0 0 0 0 0 0 0 0 0 0 0 0 0 0 0 0 0 0 0 0 0 0 0 0
0 0 0 0 0 0 0 0 0 0 0 0 0 0 0 0 0 0 0 0 0 0 0 0 0 0 0 0 0 0 0 0 0 0 0 0 0 0 0 0 0 0 0
0 0 0 0 0 0 0 0 0 0 0 0 0 0 0 0 0 0 0 0 0 0 0 0 0 0 0 0 0 0 0 0 0 0 0 0 0 0 0 0 0 0 0
0 0 0 0 0 0 0 0 0 0 0 0 0 0 0 0 0 0 0 0 0 0 0 0 0 0 0 0 0 0 0 0 0 0 0 0 0 0 0 0 0 0 0
0 0 0 0 0 0 0 0 0 0 0 0 0 0 0 0 0 0 0 0 0 0 0 0 0 0 0 0 0 0 0 0 0 0 0 0 0 0 0 0 0 0 0
0 0 0 0 0 0 0 0 0 0 0 0 0 0 0 0 0 0 0 0 0 0 0 0 0 0 0 0 0 0 0 0 0 0 0 0 0 0 0 0 0 0 0
0 0 0 0 0 0 0 0 0 0 0 0 0 0 0 0 0 0 0 0 0 0 0 0 0 0 0 0 0 0 0 0 0 0 0 0 0 0 0 0 0 0 0
0 0 0 0 0 0 0 0 0 0 0 0 0 0 0 0 0 0 0 0 0 0 0 0 0 0 0 0 0 0 0 0 0 0 0 0 0 0 0 0 0 0 0

GEFSMA_con_cape1000_066.txt.gz
Probability
81 68 55 55 42 45 45 55 52 52 52 65 61 55 55 58 61 65 55 65 94 94 87 97 100 100 97 97 97 97 100 100 100 100 100 100 100 97 97 97 94 94 94
55 45 39 29 16 19 26 26 29 29 32 29 35 39 42 52 52 52 48 45 52 90 90 87 97 97 94 97 97 94 100 100 100 100 100 100 100 100 100 97 97 90 87
26 16 13 10 13 10 10 6 13 16 19 19 19 23 29 35 45 45 45 42 42 52 71 84 87 87 94 90 94 94 97 100 100 97 100 97 100 100 100 100 94 94 74
10 6 6 6 6 3 3 6 6 3 6 10 13 13 13 13 23 35 35 35 39 23 39 58 65 77 81 77 84 87 94 97 94 97 97 90 94 94 94 97 94 74 52
3 3 3 3 3 3 3 3 3 3 3 3 3 3 3 3 10 6 13 16 19 19 19 29 52 68 65 68 74 84 90 90 90 94 97 87 87 84 77 81 77 65 29
0 0 3 3 3 3 3 3 3 3 3 3 3 3 3 3 3 3 3 6 6 13 13 13 23 32 48 55 61 71 77 87 84 87 94 94 87 71 48 32 29 32 26
0 0 0 0 0 0 0 0 0 0 0 0 0 0 3 0 0 3 3 3 3 6 10 10 10 10 23 29 39 52 58 65 74 81 94 97 87 71 52 29 26 19 10
0 0 0 0 0 0 0 0 0 0 0 0 0 0 0 0 0 0 0 3 3 3 3 3 10 10 10 26 16 23 45 55 65 84 97 97 84 68 52 32 23 0 0
0 0 0 0 0 0 0 0 0 0 0 0 0 0 0 0 0 0 0 0 0 3 3 3 6 6 10 13 16 10 29 39 52 81 97 94 68 39 39 29 29 6 0
0 0 0 0 0 0 0 0 0 0 0 0 0 0 0 0 0 0 0 0 0 0 0 0 0 3 6 10 6 6 10 23 35 65 87 94 74 35 23 23 32 29 16
0 0 0 0 0 0 0 0 0 0 0 0 0 0 0 0 0 0 0 0 0 0 0 0 0 3 3 6 6 6 3 6 6 29 71 81 74 58 39 35 42 39 32
0 0 0 0 0 0 0 0 0 0 0 0 0 0 0 0 0 0 0 0 0 0 0 0 0 0 0 0 0 3 3 3 0 3 6 26 52 65 61 55 61 61 52
0 0 0 0 0 0 0 0 0 0 0 0 0 0 0 0 0 0 0 0 0 0 0 0 0 0 0 0 0 0 3 0 0 0 0 0 3 16 32 42 65 71 68
0 0 0 0 0 0 0 0 0 0 0 0 0 0 0 0 0 0 0 0 0 0 0 0 0 0 0 0 0 0 3 0 0 0 0 0 0 0 0 3 6 13 26
0 0 0 0 0 0 0 0 0 0 0 0 0 0 0 0 0 0 0 0 0 0 0 0 0 0 0 0 0 0 0 0 0 0 0 0 0 0 0 0 0 0 0
0 0 0 0 0 0 0 0 0 0 0 0 0 0 0 0 0 0 0 0 0 0 0 0 0 0 0 0 0 0 0 0 0 0 0 0 0 0 0 0 0 0 0
0 0 0 0 0 0 0 0 0 0 0 0 0 0 0 0 0 0 0 0 0 0 0 0 0 0 0 0 0 0 0 0 0 0 0 0 0 0 0 0 0 0 0
0 0 0 0 0 0 0 0 0 0 0 0 0 0 0 0 0 0 0 0 0 0 0 0 0 0 0 0 0 0 0 0 0 0 0 0 0 0 0 0 0 0 0
0 0 0 0 0 0 0 0 0 0 0 0 0 0 0 0 0 0 0 0 0 0 0 0 0 0 0 0 0 0 0 0 0 0 0 0 0 0 0 0 0 0 0
0 0 0 0 0 0 0 0 0 0 0 0 0 0 0 0 0 0 0 0 0 0 0 0 0 0 0 0 0 0 0 0 0 0 0 0 0 0 0 0 0 0 0
0 0 0 0 0 0 0 0 0 0 0 0 0 0 0 0 0 0 0 0 0 0 0 0 0 0 0 0 0 0 0 0 0 0 0 0 0 0 0 0 0 0 0
0 0 0 0 0 0 0 0 0 0 0 0 0 0 0 0 0 0 0 0 0 0 0 0 0 0 0 0 0 0 0 0 0 0 0 0 0 0 0 0 0 0 0
0 0 0 0 0 0 0 0 0 0 0 0 0 0 0 0 0 0 0 0 0 0 0 0 0 0 0 0 0 0 0 0 0 0 0 0 0 0 0 0 0 0 0
0 0 0 0 0 0 0 0 0 0 0 0 0 0 0 0 0 0 0 0 0 0 0 0 0 0 0 0 0 0 0 0 0 0 0 0 0 0 0 0 0 0 0
0 0 0 0 0 0 0 0 0 0 0 0 0 0 0 0 0 0 0 0 0 0 0 0 0 0 0 0 0 0 0 0 0 0 0 0 0 0 0 0 0 0 0
0 0 0 0 0 0 0 0 0 0 0 0 0 0 0 0 0 0 0 0 0 0 0 0 0 0 0 0 0 0 0 0 0 0 0 0 0 0 0 0 0 0 0

GEFSMA_con_cape1000_072.txt.gz
Probability
84 81 84 84 74 77 74 74 77 81 81 74 74 68 61 68 68 65 71 87 90 90 94 94 97 100 100 100 100 97 100 100 100 100 100 100 100 100 97 97 97 94 87
77 74 77 77 84 74 68 65 61 61 68 71 71 68 71 65 74 68 61 68 87 84 90 94 94 100 97 100 100 97 97 100 100 100 100 100 100 100 100 100 100 97 90
68 68 68 61 52 48 52 45 35 39 45 42 39 42 55 65 55 61 71 71 74 77 81 84 90 97 97 97 97 100 97 97 100 100 100 100 100 97 100 100 100 100 84
45 55 45 39 35 35 29 29 32 32 29 29 32 29 45 48 58 55 52 55 65 55 71 81 87 94 94 94 100 100 97 97 94 94 100 97 97 97 97 100 100 87 65
23 26 32 32 29 26 19 13 13 19 16 16 16 32 29 42 45 35 39 39 42 61 55 65 81 87 81 84 97 97 97 94 87 90 87 94 94 97 90 94 84 71 52
13 13 16 16 13 10 13 10 10 16 16 13 6 13 19 16 16 19 23 26 23 26 35 48 61 61 68 77 90 97 94 90 84 81 77 87 87 87 81 65 65 48 42
3 6 3 0 3 3 6 0 10 6 6 6 6 6 10 13 13 19 19 13 16 19 29 42 42 55 58 55 61 84 84 87 87 84 74 71 84 84 58 29 29 29 26
3 0 0 0 0 0 0 0 0 3 0 0 0 6 3 13 16 10 16 26 16 19 23 23 32 55 58 68 45 42 71 74 74 74 74 71 71 68 32 23 6 3 10
0 0 0 0 0 0 0 0 0 0 0 0 0 0 0 0 3 6 3 6 6 19 19 16 23 29 48 65 74 26 42 52 74 71 77 68 48 32 29 19 13 6 0
0 0 0 0 0 0 0 0 0 0 0 0 0 0 3 3 0 0 0 0 3 3 6 10 10 13 23 45 58 26 23 32 45 55 65 48 42 23 13 16 26 19 6
0 0 0 0 0 0 0 0 0 0 0 0 0 0 0 0 0 0 3 3 0 0 3 6 10 16 23 29 52 26 3 10 16 35 35 42 35 29 26 23 39 42 35
0 0 0 0 0 0 0 0 0 0 0 0 0 0 0 0 0 0 0 0 6 3 0 0 6 6 13 16 16 3 3 3 6 6 16 29 29 26 23 26 42 55 58
0 0 0 0 0 0 0 0 0 0 0 0 0 0 0 0 0 0 0 0 0 3 0 0 6 6 3 13 26 0 0 0 0 0 0 6 16 16 16 23 32 48 52
0 0 0 0 0 0 0 0 0 0 0 0 0 0 0 0 0 0 0 0 0 0 0 0 3 13 19 10 0 0 0 0 0 0 0 0 0 3 6 10 10 13 29
0 0 0 0 0 0 0 0 0 0 0 0 0 0 0 0 0 0 0 0 0 0 0 0 0 10 23 13 0 6 13 0 0 0 0 0 0 0 0 0 0 0 0
0 0 0 0 0 0 0 0 0 0 0 0 0 0 0 0 0 0 0 0 0 0 0 0 3 3 3 0 0 6 6 0 0 0 0 0 0 0 0 0 0 0 0
0 0 0 0 0 0 0 0 0 0 0 0 0 0 0 0 0 0 0 0 0 0 0 0 0 0 3 3 0 6 3 3 0 0 0 0 0 0 0 0 0 0 0
0 0 0 0 0 0 0 0 0 0 0 0 0 0 0 0 0 0 0 0 0 0 0 0 0 0 0 3 0 3 0 0 3 0 0 0 0 0 0 0 0 0 0
0 0 0 0 0 0 0 0 0 0 0 0 0 0 0 0 0 0 0 0 0 0 0 0 0 0 0 3 0 0 0 0 0 0 0 0 0 0 0 0 0 0 0
0 0 0 0 0 0 0 0 0 0 0 0 0 0 0 0 0 0 0 0 0 0 0 0 0 0 0 3 3 0 0 0 0 0 0 0 0 0 0 0 0 0 0
0 0 0 0 0 0 0 0 0 0 0 0 0 0 0 0 0 0 0 0 0 0 0 0 0 0 0 0 3 0 0 0 0 0 0 0 0 0 0 0 0 0 0
0 0 0 0 0 0 0 0 0 0 0 0 0 0 0 0 0 0 0 0 0 0 0 0 0 0 0 0 0 0 0 0 0 0 0 0 0 0 0 0 0 0 0
0 0 0 0 0 0 0 0 0 0 0 0 0 0 0 0 0 0 0 0 0 0 0 0 0 0 0 0 0 0 0 0 0 0 0 0 0 0 0 0 0 0 0
0 0 0 0 0 0 0 0 0 0 0 0 0 0 0 0 0 0 0 0 0 0 0 0 0 0 0 0 0 0 0 0 0 0 0 0 0 0 0 0 0 0 0
0 0 0 0 0 0 0 0 0 0 0 0 0 0 0 0 0 0 0 0 0 0 0 0 0 0 0 0 0 0 0 0 0 0 0 0 0 0 0 0 0 0 0
0 0 0 0 0 0 0 0 0 0 0 0 0 0 0 0 0 0 0 0 0 0 0 0 0 0 0 0 0 0 0 0 0 0 0 0 0 0 0 0 0 0 0

GEFSMA_con_cape1000_078.txt.gz
Probability
84 87 87 84 77 74 68 74 65 61 68 65 55 61 55 55 45 58 65 71 77 90 90 97 97 97 100 100 100 100 100 100 100 100 100 100 100 94 97 97 97 87 81
77 74 81 81 77 77 71 58 52 48 52 52 55 52 58 52 55 55 55 58 74 84 94 94 94 97 100 100 100 100 100 100 100 100 100 100 100 100 97 97 94 94 87
65 65 71 71 74 61 61 58 52 45 35 32 45 48 48 48 48 45 42 52 68 84 90 94 97 97 100 100 100 100 100 100 100 100 100 100 100 100 100 97 97 94 94
42 48 55 52 48 45 52 45 39 35 42 29 35 35 35 42 48 58 48 48 52 48 77 84 84 94 90 94 97 100 100 100 100 100 100 100 100 100 100 100 97 87 81
26 32 35 35 29 35 35 16 32 35 29 29 26 35 32 32 39 35 35 42 45 52 55 68 81 77 87 90 90 97 100 100 100 100 100 100 100 97 94 97 94 84 65
10 13 19 16 13 16 26 19 19 19 32 26 6 6 19 23 35 29 26 26 29 39 26 35 74 74 87 84 97 97 97 100 100 97 94 97 100 97 81 65 55 55 39
3 3 3 3 3 6 13 6 10 6 10 16 3 6 6 10 16 26 26 23 23 23 29 45 52 58 65 77 77 87 94 97 100 100 94 94 97 94 74 42 35 29 16
6 0 13 3 3 6 3 6 6 3 3 0 3 3 3 3 13 6 13 23 16 29 32 23 35 58 52 61 52 71 84 90 90 97 97 94 94 87 68 42 19 13 10
6 6 6 3 0 3 0 3 0 0 0 0 0 0 0 0 3 6 6 6 16 16 16 23 32 39 52 45 52 32 68 84 87 90 94 94 84 68 52 42 29 13 6
6 6 6 0 3 0 0 0 0 0 0 0 0 0 0 0 0 0 3 3 6 10 10 3 6 29 35 32 42 48 42 48 81 87 90 87 84 61 35 39 48 35 10
6 10 6 3 3 0 0 0 0 0 0 0 0 0 0 0 0 0 0 0 0 0 6 13 3 23 16 23 35 26 16 13 26 55 74 81 84 74 58 58 65 68 45
6 6 3 6 6 0 0 0 0 0 0 0 0 0 0 0 0 0 0 0 0 0 6 0 0 13 19 16 3 0 0 3 3 10 19 48 61 71 61 58 58 68 74
6 3 3 6 3 0 0 0 0 0 0 0 0 0 0 0 0 0 0 0 0 0 3 0 0 6 0 10 13 0 0 0 0 0 3 10 26 42 55 52 52 55 65
0 0 0 0 0 0 0 0 0 0 0 0 0 0 0 0 0 0 0 0 0 0 0 0 0 0 3 6 3 0 0 0 0 0 0 0 0 3 10 19 26 32 32
0 0 0 0 0 0 0 0 0 0 0 0 0 0 0 0 0 0 0 0 0 0 0 0 0 0 6 10 0 0 3 0 0 0 0 0 0 0 0 0 3 3 0
0 0 0 0 0 0 0 0 0 0 0 0 0 0 0 0 0 0 0 0 0 0 0 0 0 0 0 0 0 0 0 0 0 0 0 0 0 0 0 0 0 0 0
0 0 0 0 0 0 0 0 0 0 0 0 0 0 0 0 0 0 0 0 0 0 0 0 0 0 3 3 0 3 0 0 0 0 0 0 0 0 0 0 0 0 0
0 0 0 0 0 0 0 0 0 0 0 0 0 0 0 0 0 0 0 0 0 0 0 0 0 0 0 3 6 10 0 0 0 0 0 0 0 0 0 0 0 0 0
0 0 0 0 0 0 0 0 0 0 0 0 0 0 0 0 0 0 0 0 0 0 0 0 0 0 0 0 0 3 0 0 0 0 0 0 0 0 0 0 0 0 0
0 0 0 0 0 0 0 0 0 0 0 0 0 0 0 0 0 0 0 0 0 0 0 0 0 0 0 0 0 0 0 0 0 0 0 0 0 0 0 0 0 0 0
0 0 0 0 0 0 0 0 0 0 0 0 0 0 0 0 0 0 0 0 0 0 0 0 0 0 0 0 0 0 0 0 0 0 0 0 0 0 0 0 0 0 0
0 0 0 0 0 0 0 0 0 0 0 0 0 0 0 0 0 0 0 0 0 0 0 0 0 0 0 0 0 0 0 0 0 0 0 3 0 0 0 0 0 0 0
0 0 0 0 0 0 0 0 0 0 0 0 0 0 0 0 0 0 0 0 0 0 0 0 0 0 0 0 0 0 0 0 0 0 0 0 0 0 0 0 0 0 0
0 6 3 3 0 0 0 0 0 0 0 0 0 0 0 0 0 0 0 0 0 0 0 0 0 0 0 0 0 0 0 0 0 0 0 0 0 0 0 0 0 0 0
6 3 3 3 3 0 0 0 0 0 0 0 0 0 0 0 0 0 0 0 0 0 0 0 0 0 0 0 0 0 0 0 0 0 0 0 0 0 0 0 0 0 0
6 3 0 0 0 0 0 0 0 0 0 0 0 0 0 0 0 0 0 0 0 0 0 0 0 0 0 0 0 0 0 0 0 0 0 0 0 0 0 0 0 0 0

GEFSMA_con_cape1000_084.txt.gz
Probability
16 19 26 23 16 16 26 23 23 16 19 10 13 16 23 19 19 19 26 61 74 65 77 84 87 87 94 94 100 100 100 100 100 100 100 100 94 87 81 81 81 87 77
13 13 13 13 10 13 6 3 6 10 3 3 3 3 3 10 10 10 19 29 68 71 74 77 90 90 94 94 100 100 100 100 100 100 100 100 100 94 90 84 74 77 77
6 3 0 0 3 3 3 3 3 3 10 3 3 0 3 3 0 3 3 16 26 55 68 71 81 90 94 94 100 100 100 100 100 100 100 100 100 94 90 94 94 81 55
0 0 0 0 0 3 3 3 3 3 3 3 3 0 0 0 0 0 3 3 13 16 52 71 77 87 87 87 87 97 100 100 100 100 100 100 100 97 90 90 94 81 39
0 0 0 0 3 3 3 3 0 3 3 3 3 3 0 0 0 0 0 3 6 10 16 26 77 87 81 84 84 90 97 100 100 100 100 100 100 100 94 87 77 58 35
0 0 0 0 0 0 0 0 0 0 0 0 3 3 0 0 0 0 0 0 0 0 3 6 23 42 81 87 94 90 90 97 100 97 100 100 100 100 87 65 58 52 32
0 0 0 0 0 0 0 0 0 0 0 0 0 0 0 0 0 0 0 0 0 0 0 3 6 6 16 65 71 87 87 84 97 100 94 97 100 100 94 68 45 35 26
0 0 0 0 0 0 0 0 0 0 0 0 0 0 0 0 0 0 0 0 0 0 0 3 0 0 0 6 6 52 77 81 81 94 97 94 100 94 87 68 39 23 16
0 0 0 0 0 0 0 0 0 0 0 0 0 0 0 0 0 0 0 0 0 0 0 0 0 0 0 0 0 6 55 58 74 77 94 97 90 74 74 65 45 32 16
0 0 0 0 0 0 0 0 0 0 0 0 0 0 0 0 0 0 0 0 0 0 0 0 0 0 0 0 0 0 6 23 55 71 87 90 87 68 61 65 68 55 26
0 0 0 0 0 0 0 0 0 0 0 0 0 0 0 0 0 0 0 0 0 0 0 0 0 0 0 0 0 3 3 3 6 29 48 55 71 71 65 61 68 77 71
0 0 0 0 0 0 0 0 0 0 0 0 0 0 0 0 0 0 0 0 0 0 0 0 0 0 0 0 0 0 0 0 3 3 3 16 29 39 61 68 81 81 74
0 0 0 0 0 0 0 0 0 0 0 0 0 0 0 0 0 0 0 0 0 0 0 0 0 0 0 0 0 0 0 0 0 0 0 3 3 6 26 45 61 74 77
0 0 0 0 0 0 0 0 0 0 0 0 0 0 0 0 0 0 0 0 0 0 0 0 0 0 0 0 0 0 0 0 0 0 0 0 0 3 3 6 10 23 35
0 0 0 0 0 0 0 0 0 0 0 0 0 0 0 0 0 0 0 0 0 0 0 0 0 0 0 0 0 0 0 0 0 0 0 0 0 0 0 0 0 0 0
0 0 0 0 0 0 0 0 0 0 0 0 0 0 0 0 0 0 0 0 0 0 0 0 0 0 0 0 0 0 0 0 0 0 0 0 0 0 0 0 0 0 0
0 0 0 0 0 0 0 0 0 0 0 0 0 0 0 0 0 0 0 0 0 0 0 0 0 0 0 0 0 0 0 0 0 0 0 0 0 0 0 0 0 0 0
0 0 0 0 0 0 0 0 0 0 0 0 0 0 0 0 0 0 0 0 0 0 0 0 0 0 0 0 0 0 0 0 0 0 0 0 0 0 0 0 0 0 0
0 0 0 0 0 0 0 0 0 0 0 0 0 0 0 0 0 0 0 0 0 0 0 0 0 0 0 0 0 0 0 0 0 0 0 0 0 0 0 0 0 0 0
0 0 0 0 0 0 0 0 0 0 0 0 0 0 0 0 0 0 0 0 0 0 0 0 0 0 0 0 0 0 0 0 0 0 0 0 0 0 0 0 0 0 0
0 0 0 0 0 0 0 0 0 0 0 0 0 0 0 0 0 0 0 0 0 0 0 0 0 0 0 0 0 0 0 0 0 0 0 0 0 0 0 0 0 0 0
0 0 0 0 0 0 0 0 0 0 0 0 0 0 0 0 0 0 0 0 0 0 0 0 0 0 0 0 0 0 0 0 0 0 0 0 0 0 0 0 0 0 0
0 0 0 0 0 0 0 0 0 0 0 0 0 0 0 0 0 0 0 0 0 0 0 0 0 0 0 0 0 0 0 0 0 0 0 0 0 0 0 0 0 0 0
0 0 0 0 0 0 0 0 0 0 0 0 0 0 0 0 0 0 0 0 0 0 0 0 0 0 0 0 0 0 0 0 0 0 0 0 0 0 0 0 0 0 0
0 0 0 0 0 0 0 0 0 0 0 0 0 0 0 0 0 0 0 0 0 0 0 0 0 0 0 0 0 0 0 0 0 0 0 0 0 0 0 0 0 0 0
0 0 0 0 0 0 0 0 0 0 0 0 0 0 0 0 0 0 0 0 0 0 0 0 0 0 0 0 0 0 0 0 0 0 0 0 0 0 0 0 0 0 0

GEFSMA_con_cape1000_090.txt.gz
Probability
19 19 23 16 16 13 13 16 16 19 16 13 10 23 19 23 29 35 32 42 65 84 81 87 90 94 94 94 87 97 97 100 100 100 97 90 87 90 87 77 87 87 74
6 6 3 6 6 6 6 6 13 13 10 10 13 13 3 6 13 10 19 23 52 68 74 77 81 81 81 90 90 90 94 97 100 100 100 100 94 90 87 77 87 84 77
6 3 3 3 3 3 3 3 3 3 3 3 3 3 3 10 10 10 10 10 26 35 61 77 81 87 81 87 84 97 97 97 100 100 100 100 100 97 94 87 87 90 61
3 0 0 0 0 3 3 3 3 3 3 3 3 0 3 3 3 0 0 3 10 13 35 48 68 77 74 71 74 81 97 97 100 97 100 100 100 97 90 84 87 84 55
0 0 0 0 0 0 0 0 0 0 0 0 0 3 3 0 0 0 0 0 3 6 16 16 32 68 61 61 81 81 84 90 90 94 97 100 100 100 81 81 90 74 29
0 0 0 0 0 0 0 0 0 0 0 0 0 0 0 0 0 0 0 0 0 6 10 10 13 16 23 74 77 81 77 84 77 81 87 97 100 100 84 68 65 58 29
0 0 0 0 0 0 0 0 0 0 0 0 0 0 0 0 0 0 0 0 0 3 10 10 13 13 16 16 35 68 71 77 81 77 81 87 90 87 77 71 55 42 32
0 0 0 0 0 0 0 0 0 0 0 0 0 0 0 0 0 0 0 0 0 3 3 3 6 6 13 10 6 16 55 68 65 65 71 74 77 81 71 68 45 23 23
0 0 0 0 0 0 0 0 0 0 0 0 0 0 0 0 0 0 0 0 0 0 0 0 3 0 3 10 6 3 23 35 61 58 61 61 68 65 58 68 68 39 19
0 0 0 0 0 0 0 0 0 0 0 0 0 0 0 0 0 0 0 0 0 0 0 0 0 0 0 0 0 0 0 13 23 42 52 55 55 48 39 55 71 71 42
0 0 0 0 0 0 0 0 0 0 0 0 0 0 0 0 0 0 0 0 0 0 0 0 0 0 0 0 0 0 0 0 0 13 23 23 35 35 35 42 71 77 71
0 0 0 0 0 0 0 0 0 0 0 0 0 0 0 0 0 0 0 0 0 0 0 0 0 0 0 0 0 0 0 0 0 0 3 13 16 26 39 39 52 55 65
0 0 0 0 0 0 0 0 0 0 0 0 0 0 0 0 0 0 0 0 0 0 0 0 0 0 0 0 0 0 0 0 0 0 0 0 0 3 6 16 32 48 48
0 0 0 0 0 0 0 0 0 0 0 0 0 0 0 0 0 0 0 0 0 0 0 0 0 0 0 0 0 0 0 0 0 0 0 0 0 0 0 0 0 6 10
0 0 0 0 0 0 0 0 0 0 0 0 0 0 0 0 0 0 0 0 0 0 0 0 0 0 0 0 0 0 0 0 0 0 0 0 0 0 0 0 0 0 0
0 0 0 0 0 0 0 0 0 0 0 0 0 0 0 0 0 0 0 0 0 0 0 0 0 0 0 0 0 0 0 0 0 0 0 0 0 0 0 0 0 0 0
0 0 0 0 0 0 0 0 0 0 0 0 0 0 0 0 0 0 0 0 0 0 0 0 0 0 0 0 0 0 0 0 0 0 0 0 0 0 0 0 0 0 0
0 0 0 0 0 0 0 0 0 0 0 0 0 0 0 0 0 0 0 0 0 0 0 0 0 0 0 0 0 0 0 0 0 0 0 0 0 0 0 0 0 0 0
0 0 0 0 0 0 0 0 0 0 0 0 0 0 0 0 0 0 0 0 0 0 0 0 0 0 0 0 0 0 0 0 0 0 0 0 0 0 0 0 0 0 0
0 0 0 0 0 0 0 0 0 0 0 0 0 0 0 0 0 0 0 0 0 0 0 0 0 0 0 0 0 0 0 0 0 0 0 0 0 0 0 0 0 0 0
0 0 0 0 0 0 0 0 0 0 0 0 0 0 0 0 0 0 0 0 0 0 0 0 0 0 0 0 0 0 0 0 0 0 0 0 0 0 0 0 0 0 0
0 0 0 0 0 0 0 0 0 0 0 0 0 0 0 0 0 0 0 0 0 0 0 0 0 0 0 0 0 0 0 0 0 0 0 0 0 0 0 0 0 0 0
0 0 0 0 0 0 0 0 0 0 0 0 0 0 0 0 0 0 0 0 0 0 0 0 0 0 0 0 0 0 0 0 0 0 0 0 0 0 0 0 0 0 0
0 0 0 0 0 0 0 0 0 0 0 0 0 0 0 0 0 0 0 0 0 0 0 0 0 0 0 0 0 0 0 0 0 0 0 0 0 0 0 0 0 0 0
0 0 0 0 0 0 0 0 0 0 0 0 0 0 0 0 0 0 0 0 0 0 0 0 0 0 0 0 0 0 0 0 0 0 0 0 0 0 0 0 0 0 0
0 0 0 0 0 0 0 0 0 0 0 0 0 0 0 0 0 0 0 0 0 0 0 0 0 0 0 0 0 0 0 0 0 0 0 0 0 0 0 0 0 0 0

GEFSMA_con_cape1000_096.txt.gz
Probability
61 55 61 68 61 58 58 58 65 65 65 48 42 39 39 55 42 32 52 65 68 77 74 84 84 87 87 90 90 97 94 90 94 90 87 90 90 87 77 77 84 77 84
55 52 52 65 45 52 42 52 48 42 48 48 42 29 32 29 39 45 42 52 52 58 58 68 81 84 81 87 90 90 84 81 94 97 90 87 90 90 84 84 90 87 77
48 39 32 35 35 35 42 39 35 32 32 23 26 32 32 35 35 35 32 39 39 39 48 61 71 74 77 77 74 74 77 77 81 87 90 90 97 90 94 94 94 94 87
29 26 16 16 23 26 26 29 29 26 26 23 23 23 23 29 26 23 23 29 29 23 32 48 58 65 65 65 61 68 71 71 74 77 87 87 94 94 94 97 97 94 81
16 19 23 19 13 10 10 3 13 10 13 6 6 13 13 13 13 10 13 19 13 19 26 32 45 52 48 52 58 68 74 68 68 68 77 81 84 87 81 84 87 84 68
19 10 10 13 3 6 6 3 3 3 3 3 3 0 6 3 6 13 13 16 16 6 6 13 32 29 42 39 52 61 58 68 61 65 71 77 81 84 71 65 65 71 58
6 10 3 13 0 3 3 0 0 0 0 3 3 3 3 3 0 10 10 13 13 10 10 13 19 29 32 19 16 26 42 55 65 65 65 65 84 81 68 58 58 42 45
10 3 3 3 0 0 3 3 3 3 0 0 3 3 3 0 0 0 0 3 3 6 6 10 13 16 10 26 19 13 26 39 45 68 61 61 65 58 58 52 39 29 23
13 3 6 3 0 3 3 0 0 0 0 0 0 3 3 3 0 3 0 3 6 6 6 6 10 10 10 16 13 10 19 23 35 42 65 58 45 29 29 32 55 29 16
16 10 10 3 6 3 3 0 0 0 0 0 0 0 0 0 0 0 3 3 3 3 3 0 0 3 10 10 10 6 6 6 16 23 42 52 45 29 13 26 42 52 39
10 10 10 10 13 3 3 0 0 0 0 0 0 0 0 0 0 0 0 0 0 0 0 0 0 0 0 0 10 3 3 0 0 13 26 32 32 35 29 32 35 58 65
16 13 13 13 13 6 6 6 6 3 3 0 0 0 0 0 0 0 0 0 0 0 0 0 0 0 0 0 0 0 0 0 0 0 0 10 10 16 19 23 32 29 45
13 16 10 13 10 10 10 6 6 6 3 3 3 0 0 0 0 0 0 0 0 0 0 0 0 0 0 0 0 0 0 0 0 0 0 0 3 3 6 16 19 23 35
10 10 10 13 13 6 6 6 6 3 3 0 0 0 0 0 0 0 0 0 0 0 0 0 0 0 0 0 0 0 0 0 0 0 0 0 0 0 0 0 3 10 13
13 10 10 10 10 10 6 3 0 0 0 0 0 0 0 0 0 0 0 0 0 0 0 0 0 0 0 0 0 0 0 0 0 0 0 0 0 0 0 0 0 0 0
13 16 10 10 6 3 3 0 0 0 0 0 0 0 0 0 0 0 0 0 0 0 0 0 0 0 0 0 0 0 0 0 0 0 0 0 0 0 0 0 0 0 0
19 13 13 10 10 3 0 0 0 0 0 0 0 0 0 0 0 0 0 0 0 0 0 0 0 0 0 0 0 0 0 0 0 0 0 0 0 0 0 0 0 0 0
19 13 13 10 6 0 0 0 0 0 0 0 0 0 0 0 0 0 0 0 0 0 0 0 0 0 0 0 0 0 0 0 0 0 0 0 0 0 0 0 0 0 0
16 13 13 13 3 0 0 0 0 0 0 0 0 0 0 0 0 0 0 0 0 0 0 0 0 0 0 0 0 0 0 0 0 0 0 0 0 0 0 0 0 0 0
16 16 13 10 6 0 0 0 0 0 0 0 0 0 0 0 0 0 0 0 0 0 0 0 0 0 0 0 0 0 0 0 0 0 0 0 0 0 0 0 0 0 0
13 13 10 6 3 0 0 0 0 0 0 0 0 0 0 0 0 0 0 0 0 0 0 0 0 0 0 0 0 0 0 0 0 0 0 0 0 0 0 0 0 0 0
13 13 10 10 0 0 0 0 0 0 0 0 0 0 0 0 0 0 0 0 0 0 0 0 0 0 0 0 0 0 0 0 0 0 0 0 0 0 0 3 0 0 0
16 13 13 6 3 0 0 0 0 0 0 0 0 0 0 0 0 0 0 0 0 0 0 0 0 0 0 0 0 0 0 0 0 0 0 0 0 0 0 0 0 0 0
23 19 19 10 10 0 0 0 0 0 0 0 0 0 0 0 0 0 0 0 0 0 0 0 0 0 0 0 0 0 0 0 0 0 0 0 0 0 0 0 0 0 0
19 16 13 10 13 0 0 0 0 0 0 0 0 0 0 0 0 0 0 0 0 0 0 0 0 0 0 0 0 0 0 0 0 0 0 0 0 0 0 0 0 0 0
29 13 6 6 6 10 0 0 0 0 0 0 0 0 0 0 0 0 0 0 0 0 0 0 0 0 0 0 0 0 0 0 0 0 0 0 0 0 0 0 0 0 0

GEFSMA_con_cape1000_102.txt.gz
Probability
77 77 77 71 55 58 48 58 58 58 52 45 52 48 52 52 35 42 58 84 84 84 84 77 84 87 87 90 94 84 84 87 77 81 81 84 84 81 77 81 84 77 81
68 84 74 65 61 61 58 48 48 48 55 52 42 32 32 42 48 42 58 68 71 74 77 74 84 81 84 77 87 84 81 77 77 87 81 81 81 81 77 77 77 81 81
58 61 71 71 68 65 58 52 52 48 39 32 35 26 29 32 32 39 52 61 58 58 71 81 81 81 71 68 74 65 71 74 77 77 81 81 84 81 81 81 77 81 81
45 48 39 48 42 52 52 58 42 42 39 29 26 23 32 29 26 39 39 48 48 39 48 71 74 77 74 65 58 58 58 65 61 68 74 81 77 84 77 81 77 81 77
26 23 32 39 35 39 32 19 39 32 26 23 19 23 23 26 26 23 23 26 32 35 35 48 65 74 74 58 61 65 58 58 48 55 58 68 74 74 84 81 74 71 74
23 26 32 29 29 32 29 29 16 23 19 10 0 0 6 6 13 16 16 19 16 19 16 23 39 48 65 68 71 68 61 61 55 45 48 52 74 74 74 77 77 71 71
23 32 23 35 23 29 19 13 19 6 0 0 0 3 3 3 10 13 16 23 19 13 13 16 13 19 39 39 48 65 61 48 45 42 42 42 48 58 58 55 55 58 52
32 19 26 29 32 35 16 13 3 6 3 0 0 0 0 3 0 0 6 10 16 16 13 10 16 19 23 26 3 32 35 39 39 42 48 42 42 32 35 35 45 35 35
26 29 26 19 23 29 23 13 6 3 3 3 0 0 0 3 3 3 0 0 3 10 6 6 16 16 13 19 29 3 26 29 29 29 32 35 32 19 19 29 32 29 16
32 23 23 26 23 23 23 13 6 6 6 3 6 3 0 3 0 3 6 0 6 6 3 3 6 16 10 13 16 6 13 16 23 23 29 32 29 19 10 10 23 26 19
39 26 23 29 26 26 26 13 16 6 6 6 3 3 0 0 0 0 0 0 0 3 3 6 6 13 13 10 23 6 3 3 6 10 19 26 23 19 23 16 16 23 35
45 35 23 23 23 26 26 19 16 13 13 6 10 6 6 0 0 0 0 0 0 0 0 6 6 10 13 3 3 6 3 3 0 0 0 0 10 19 32 19 19 23 23
48 45 23 39 35 23 23 19 16 16 13 13 13 13 6 3 0 0 0 0 0 0 0 3 3 3 0 3 3 0 3 3 0 0 0 0 0 3 6 16 13 16 19
52 52 45 42 35 26 19 19 19 16 13 13 6 10 6 0 3 0 0 0 0 0 0 0 3 3 0 3 0 0 0 0 0 0 0 0 0 0 0 0 0 0 3
42 52 39 39 39 29 16 23 16 13 16 13 10 10 3 0 0 3 3 3 0 0 0 0 0 0 0 0 0 0 0 0 0 0 0 0 0 0 0 0 0 0 0
39 39 32 39 39 32 23 23 16 16 10 13 13 10 6 0 0 0 0 3 0 0 0 0 0 0 0 0 0 0 0 0 0 0 0 0 0 0 0 0 0 0 0
48 39 32 29 29 32 26 23 13 16 13 10 6 3 6 3 0 3 3 0 0 0 0 0 0 0 0 3 0 0 0 0 0 0 0 0 0 0 0 0 0 0 0
52 42 35 32 26 19 29 23 13 10 6 6 6 6 6 0 6 0 0 0 0 3 3 0 0 0 0 6 3 0 0 0 0 0 0 0 0 0 0 0 0 0 0
55 45 42 35 29 23 26 23 19 13 6 6 6 6 6 3 6 3 3 0 0 0 0 0 0 0 0 0 0 0 0 0 0 0 0 0 0 0 0 0 0 0 0
58 48 52 42 29 29 29 26 23 16 13 13 6 6 3 3 6 10 3 6 3 0 0 3 0 0 0 0 0 0 0 0 0 0 0 0 0 0 0 0 0 0 0
39 55 48 45 42 29 13 26 29 10 13 16 13 13 6 3 3 3 0 3 3 0 0 0 0 0 0 0 0 0 0 0 0 0 0 0 0 0 0 0 0 0 0
55 58 45 42 35 13 3 0 16 16 23 16 10 13 13 3 0 0 0 0 0 0 0 0 0 0 0 3 3 0 0 0 0 0 0 0 0 0 0 0 0 0 0
68 61 58 45 42 29 0 0 0 10 13 16 16 23 3 0 0 0 0 0 0 0 0 0 0 0 0 0 0 0 0 0 0 0 0 0 0 0 0 0 0 0 0
74 71 68 61 58 32 3 0 0 0 3 3 0 13 26 16 3 3 3 0 0 0 0 0 0 0 0 0 0 0 0 0 0 0 0 0 0 0 0 0 0 0 0
68 65 61 65 61 39 6 0 0 0 0 0 0 0 6 10 0 0 0 0 0 0 0 0 0 0 0 0 0 0 0 0 0 0 0 0 0 0 0 0 0 0 0
68 58 52 58 58 58 6 0 0 0 0 0 0 3 0 0 0 0 0 0 0 0 0 0 0 0 0 0 0 0 0 0 0 0 0 0 0 0 0 0 0 0 0

GEFSMA_con_cape1000_108.txt.gz
Probability
0 0 6 10 10 3 10 10 3 3 0 3 6 10 10 3 10 6 16 61 74 81 84 84 90 97 94 94 94 94 97 97 87 90 90 87 87 81 84 77 68 61 61
0 0 0 3 3 3 3 3 0 0 0 3 6 3 6 3 6 3 16 35 74 84 84 87 84 87 94 97 97 94 90 94 94 94 90 90 90 81 71 77 81 77 74
0 0 0 0 0 0 0 0 0 0 0 0 0 0 0 3 6 6 10 13 29 74 84 84 87 87 87 87 97 97 97 90 97 87 84 84 77 81 81 81 77 74 58
0 0 0 0 0 0 0 0 0 0 0 0 0 0 0 0 0 3 0 10 16 19 42 71 81 90 81 74 77 74 84 94 94 87 84 71 71 71 74 77 71 68 39
3 0 0 0 0 0 0 0 0 0 0 0 0 0 0 0 0 3 3 6 10 10 13 29 68 77 77 65 61 61 65 81 87 84 77 68 65 58 58 58 58 48 19
3 0 0 0 0 0 0 0 0 0 0 0 0 0 0 0 0 0 3 0 3 6 0 3 13 39 65 71 65 61 55 58 68 65 61 65 65 68 55 48 52 39 26
3 0 0 0 0 0 0 0 0 0 0 0 0 0 0 0 0 0 0 0 0 3 0 3 6 3 3 39 48 58 68 61 58 61 58 58 68 58 48 39 26 32 23
6 6 0 0 0 0 0 0 0 0 0 0 0 0 0 0 0 0 0 0 0 0 0 0 0 0 0 3 3 29 45 45 42 45 52 58 52 32 23 23 23 13 10
6 3 0 0 0 0 0 0 0 0 0 0 0 0 0 0 0 0 0 0 0 0 0 0 0 0 0 0 0 0 26 29 32 26 42 48 23 16 16 13 13 10 13
6 3 0 0 0 0 0 0 0 0 0 0 0 0 0 0 0 0 0 0 0 0 0 0 0 0 0 0 0 0 0 6 16 32 35 32 29 10 3 16 23 19 13
6 3 0 0 0 0 0 0 0 0 0 0 0 0 0 0 0 0 0 0 0 0 0 0 0 0 0 0 0 0 0 0 3 3 19 16 16 10 10 13 19 19 26
3 0 0 0 0 0 0 0 0 0 0 0 0 0 0 0 0 0 0 0 0 0 0 0 0 0 0 0 0 0 0 0 0 0 0 6 10 10 6 13 13 13 16
3 3 3 0 0 0 0 0 0 0 0 0 0 0 0 0 0 0 0 0 0 0 0 0 0 0 0 0 0 0 3 3 0 0 0 0 0 0 0 3 10 6 16
3 3 3 3 3 0 0 0 0 0 0 0 0 0 0 0 0 0 0 0 0 0 0 0 0 0 0 0 0 0 0 0 0 0 0 0 0 0 0 0 0 3 6
3 3 3 3 3 3 3 0 0 0 0 0 0 0 0 0 0 0 0 0 0 0 0 0 0 0 0 0 0 0 0 0 0 0 0 0 0 0 0 0 0 0 0
3 3 3 3 3 3 3 0 0 0 0 0 0 0 0 0 0 0 0 0 0 0 0 0 0 0 0 0 0 0 0 0 0 0 0 0 0 0 0 0 0 0 0
3 3 3 3 3 3 3 3 3 0 0 0 0 0 0 0 0 0 0 0 0 0 0 0 0 0 0 0 0 0 0 0 0 0 0 0 0 0 0 0 0 0 0
3 3 3 3 3 3 3 3 3 3 0 0 0 0 0 0 0 0 0 0 0 0 0 0 0 0 0 0 0 0 0 0 0 0 0 0 0 0 0 0 0 0 0
6 3 3 3 3 3 3 3 3 3 0 0 0 0 0 0 0 0 0 0 0 0 0 0 0 0 0 0 0 0 0 0 0 0 0 0 0 0 0 0 0 0 0
3 3 6 6 6 6 3 3 3 3 0 0 0 0 0 0 0 0 0 0 0 0 0 0 0 0 0 0 0 0 0 0 0 0 0 0 0 0 0 0 0 0 0
13 10 6 6 6 6 6 3 3 3 0 0 0 0 0 0 0 0 0 0 0 0 0 0 0 0 0 0 0 0 0 0 0 0 0 0 0 0 0 0 0 0 0
19 13 10 6 3 3 3 0 0 0 0 0 0 0 0 0 0 0 0 0 0 0 0 0 0 0 0 0 0 0 0 0 0 0 0 0 0 0 0 0 0 0 0
16 6 0 0 0 0 0 0 0 0 0 0 0 0 0 0 0 0 0 0 0 0 0 0 0 0 0 0 0 0 0 0 0 0 0 0 0 0 0 0 0 0 0
10 3 0 0 0 0 0 0 0 0 0 0 0 0 0 0 0 0 0 0 0 0 0 0 0 0 0 0 0 0 0 0 0 0 0 0 0 0 0 0 0 0 0
6 3 0 0 0 0 0 0 0 0 0 0 0 0 0 0 0 0 0 0 0 0 0 0 0 0 0 0 0 0 0 0 0 0 0 0 0 0 0 0 0 0 0
0 0 0 0 0 0 0 0 0 0 0 0 0 0 0 0 0 0 0 0 0 0 0 0 0 0 0 0 0 0 0 0 0 0 0 0 0 0 0 0 0 0 0

GEFSMA_con_cape1000_114.txt.gz
Probability
6 6 10 10 3 0 3 6 6 6 3 6 10 13 3 10 13 16 29 68 84 84 81 81 77 81 94 97 94 90 90 81 87 90 97 97 87 81 71 58 48 48 52
0 3 3 3 0 0 0 0 0 0 0 0 0 0 10 6 13 13 16 48 74 77 81 74 71 71 77 84 90 94 94 94 90 90 90 90 90 90 81 77 61 55 55
0 0 0 3 0 0 0 0 0 0 0 0 0 0 0 0 3 6 13 29 35 61 74 74 77 81 84 74 71 77 90 90 90 94 90 81 77 81 81 81 74 68 58
0 0 0 3 0 0 0 0 0 0 0 0 0 0 0 0 3 3 6 16 23 23 42 58 68 65 77 68 65 71 87 81 87 87 74 74 77 74 71 81 71 52 52
0 0 0 0 0 0 0 0 0 0 0 0 0 0 0 0 3 3 3 3 13 19 19 23 52 68 74 61 55 58 65 77 71 68 65 68 65 61 52 52 52 45 26
0 0 0 0 0 0 0 0 0 0 0 0 0 0 0 0 0 0 3 6 6 13 16 13 19 26 45 45 55 45 48 52 55 65 68 55 55 61 48 45 48 39 29
0 0 0 0 0 0 0 0 0 0 0 0 0 0 0 0 0 0 0 0 0 3 6 6 13 10 13 10 26 42 48 35 48 55 55 65 48 55 42 35 29 29 29
0 0 0 0 0 0 0 0 0 0 0 0 0 0 0 0 0 0 0 0 0 0 0 0 0 3 6 6 3 6 32 29 29 26 42 45 35 35 29 26 23 13 6
0 0 0 0 0 0 0 0 0 0 0 0 0 0 0 0 0 0 0 0 0 0 0 0 0 0 0 3 3 0 3 19 26 16 29 29 19 13 16 10 13 16 13
3 3 0 0 0 0 0 0 0 0 0 0 0 0 0 0 0 0 0 0 0 0 0 0 0 0 0 0 0 0 0 0 16 13 16 26 19 10 10 10 16 26 19
3 3 3 0 0 0 0 0 0 0 0 0 0 0 0 0 0 0 0 0 0 0 0 0 0 0 0 0 0 0 0 0 0 6 10 13 13 10 6 10 10 16 19
0 0 3 3 0 0 0 0 0 0 0 0 0 0 0 0 0 0 0 0 0 0 0 0 0 0 0 0 0 0 0 0 0 0 0 0 3 10 10 6 3 6 13
0 0 0 3 0 0 0 0 0 0 0 0 0 0 0 0 0 0 0 0 0 0 0 0 0 0 0 0 0 0 0 0 0 0 0 0 0 0 3 6 3 0 0
3 0 0 0 0 0 0 0 0 0 0 0 0 0 0 0 0 0 0 0 0 0 0 0 0 0 0 0 0 0 0 0 0 0 0 0 0 0 0 0 0 0 0
3 0 0 0 0 0 0 0 0 0 0 0 0 0 0 0 0 0 0 0 0 0 0 0 0 0 0 0 0 0 0 0 0 0 0 0 0 0 0 0 0 0 0
3 3 0 3 3 3 3 0 0 0 0 0 0 0 0 0 0 0 0 0 0 0 0 0 0 0 0 0 0 0 0 0 0 0 0 0 0 0 0 0 0 0 0
3 3 3 3 3 3 3 3 3 3 0 0 0 0 0 0 0 0 0 0 0 0 0 0 0 0 0 0 0 0 0 0 0 0 0 0 0 0 0 0 0 0 0
3 3 3 3 3 3 3 0 3 3 0 0 0 0 0 0 0 0 0 0 0 0 0 0 0 0 0 0 0 0 0 0 0 0 0 0 0 0 0 0 0 0 0
3 3 3 3 3 3 3 3 3 3 3 3 0 0 0 0 0 0 0 0 0 0 0 0 0 0 0 0 0 0 0 0 0 0 0 0 0 0 0 0 0 0 0
3 3 3 3 3 3 3 3 3 3 3 3 3 0 0 0 0 0 0 0 0 0 0 0 0 0 0 0 0 0 0 0 0 0 0 0 0 0 0 0 0 0 0
0 3 3 3 3 3 3 0 0 0 3 3 3 0 0 0 0 0 0 0 0 0 0 0 0 0 0 0 0 0 0 0 0 0 0 0 0 0 0 0 0 0 0
6 6 3 3 0 0 0 0 0 0 0 0 0 0 0 0 0 0 0 0 0 0 0 0 0 0 0 0 0 0 0 0 0 0 0 0 0 0 0 0 0 0 0
3 3 0 0 0 0 0 0 0 0 0 0 0 0 0 0 0 0 0 0 0 0 0 0 0 0 0 0 0 0 0 0 0 0 0 0 0 0 0 0 0 0 0
6 3 0 0 0 0 0 0 0 0 0 0 0 0 0 0 0 0 0 0 0 0 0 0 0 0 0 0 0 0 0 0 0 0 0 0 0 0 0 0 0 0 0
0 0 0 0 0 0 0 0 0 0 0 0 0 0 0 0 0 0 0 0 0 0 0 0 0 0 0 0 0 0 0 0 0 0 0 0 0 0 0 0 0 0 0
0 0 0 0 0 0 0 0 0 0 0 0 0 0 0 0 0 0 0 0 0 0 0 0 0 0 0 0 0 0 0 0 0 0 0 0 0 0 0 0 0 0 0

GEFSMA_con_cape1000_120.txt.gz
Probability
71 71 77 84 58 42 52 48 29 35 26 29 23 26 39 39 39 39 68 74 81 81 74 71 61 68 74 84 74 77 81 77 87 94 87 65 68 74 52 42 45 39 35
68 71 71 68 55 39 32 35 29 42 26 26 26 26 29 45 39 45 48 58 71 71 61 61 61 55 61 71 77 81 87 84 90 84 81 90 90 84 74 55 42 39 35
77 68 61 55 48 45 42 39 29 32 32 16 19 19 23 32 39 45 32 52 48 61 71 68 61 58 58 55 68 68 74 81 87 87 84 77 77 74 74 71 61 55 52
65 68 42 32 42 35 35 35 26 23 13 13 13 16 19 35 29 32 32 35 42 35 55 61 61 65 52 52 65 61 65 71 94 94 90 81 77 74 74 74 81 74 58
55 45 39 39 32 16 16 13 19 16 23 16 10 13 10 23 29 19 26 23 29 29 39 58 61 61 48 48 42 45 55 65 74 74 68 77 84 81 71 74 65 65 58
45 42 32 32 23 13 19 23 29 29 26 23 0 3 10 16 16 19 19 19 23 29 23 23 42 42 52 58 58 52 35 55 65 65 55 52 77 77 58 42 48 48 45
45 42 23 35 29 16 19 19 16 13 19 10 0 6 3 3 6 13 16 19 16 13 29 19 29 35 45 35 42 42 45 35 55 52 52 52 55 65 61 48 32 32 32
39 23 29 29 23 35 26 19 19 16 6 6 3 6 6 6 10 0 16 16 13 10 13 10 19 29 26 29 13 23 39 39 39 42 55 55 48 52 45 48 32 19 23
29 26 29 16 19 19 19 26 23 13 6 3 0 3 3 6 10 3 6 10 16 19 0 13 6 10 16 26 29 10 23 26 32 26 29 39 39 32 26 26 29 32 23
29 23 19 19 19 16 23 23 19 16 10 3 0 0 0 0 0 6 0 0 3 6 0 0 0 13 6 13 13 3 6 3 16 13 23 29 29 23 13 19 19 29 26
26 19 19 23 19 13 19 16 19 19 0 0 0 0 0 0 0 0 3 0 0 0 6 10 13 13 10 10 16 3 0 0 0 6 16 19 23 26 23 16 13 16 23
26 19 19 23 19 13 19 13 19 16 10 6 0 0 0 0 0 0 0 0 3 3 3 3 6 13 6 3 3 3 0 0 0 0 3 10 13 13 16 10 6 13 13
26 26 16 19 16 19 13 16 19 13 10 10 10 3 0 3 3 0 0 0 3 0 0 0 6 6 3 10 10 0 0 0 0 0 0 0 3 3 0 6 10 6 6
19 19 19 16 19 19 16 19 16 16 16 16 6 6 6 6 3 3 3 3 0 0 0 0 0 0 3 3 0 0 0 0 0 0 0 0 0 0 0 0 0 0 6
19 19 16 23 23 23 23 26 23 19 19 13 6 10 3 3 3 0 0 0 0 0 0 0 0 0 0 3 0 0 0 0 0 0 0 0 0 0 0 0 0 0 0
26 23 16 16 26 29 32 35 23 19 16 23 19 13 13 3 3 3 0 0 0 0 0 0 0 3 0 0 0 0 3 0 0 0 0 0 0 0 0 0 0 0 0
45 39 32 23 23 26 35 42 23 23 16 16 16 13 13 10 6 3 6 0 0 0 0 0 0 0 0 6 0 0 0 3 0 0 0 0 0 0 0 0 0 0 0
58 58 48 45 26 23 35 32 32 23 23 23 19 19 16 13 13 10 10 6 3 3 3 0 0 0 3 6 13 13 0 0 0 0 0 0 0 0 0 0 0 0 0
61 55 58 45 39 26 29 29 29 32 29 26 26 19 19 13 13 10 13 10 3 3 3 0 0 10 0 0 0 0 0 3 0 0 0 0 0 0 0 0 0 0 0
65 58 52 55 45 39 32 32 29 35 39 29 23 23 16 13 13 13 16 16 13 10 10 10 0 0 6 0 3 0 0 0 0 0 0 0 0 0 0 0 0 0 0
45 65 52 48 42 42 26 35 35 29 35 35 26 23 13 6 3 10 3 10 16 13 6 6 6 3 3 10 3 3 0 0 3 0 0 0 0 0 0 0 0 0 0
65 58 55 52 39 16 3 0 3 32 35 35 23 19 16 3 0 0 0 0 0 3 3 10 6 6 10 6 10 3 10 10 10 3 10 0 0 0 0 0 0 0 0
65 61 48 42 39 32 0 0 0 6 26 32 32 29 6 0 0 3 0 0 0 0 0 3 3 3 3 3 6 6 16 10 6 6 3 0 0 0 0 0 0 0 0
58 48 42 39 35 16 0 0 0 0 10 19 23 19 23 19 3 0 0 0 3 3 0 0 0 6 3 3 10 6 13 10 6 6 3 0 0 0 0 0 0 0 0
45 45 39 35 32 16 0 0 0 0 6 13 10 10 13 10 0 0 0 6 6 10 0 0 0 0 0 0 0 0 0 0 0 0 3 3 3 3 0 0 0 0 0
32 32 26 26 19 19 3 0 0 6 10 10 19 10 0 0 0 0 0 0 0 3 0 0 0 0 0 0 0 0 3 0 3 0 3 6 6 6 3 0 0 0 0

GEFSMA_con_cape1000_126.txt.gz
Probability
87 77 84 84 77 74 71 68 65 58 52 48 48 48 48 45 55 55 48 94 94 84 71 58 61 61 71 68 68 68 74 71 71 68 74 71 71 55 48 45 39 35 26
84 84 84 81 74 71 71 68 65 61 61 68 55 55 58 52 65 74 52 81 84 81 74 71 61 52 55 55 61 61 71 74 77 74 65 71 71 74 55 48 39 39 35
77 77 77 84 71 68 68 68 65 61 71 58 65 55 58 55 58 65 65 52 48 77 74 74 71 65 58 65 71 71 74 74 81 74 77 71 77 71 74 61 48 45 42
81 84 81 77 77 68 71 77 74 74 61 61 55 55 58 58 52 61 55 55 52 32 58 74 71 74 65 61 65 65 74 77 84 90 84 81 81 77 71 61 71 68 58
71 77 81 77 68 58 61 39 68 65 55 52 42 52 42 48 58 45 45 42 52 58 35 52 81 81 65 58 55 68 71 74 74 74 74 81 81 81 74 71 68 71 71
68 74 71 71 48 61 68 61 61 58 55 58 10 13 29 35 42 42 39 35 35 32 39 32 42 45 65 65 65 65 68 68 65 68 65 65 74 74 71 61 68 65 61
68 68 68 65 55 61 68 52 48 45 45 52 32 23 35 23 32 45 42 35 32 42 45 58 45 45 35 61 65 71 71 55 55 65 65 61 68 68 65 61 58 55 45
68 45 61 61 58 65 55 52 48 48 45 29 29 10 13 13 26 13 32 35 26 42 39 35 52 52 42 35 19 61 68 61 48 58 61 58 58 55 55 48 42 35 29
61 61 58 45 61 58 61 52 48 29 42 26 26 13 0 10 6 16 23 35 32 32 39 29 45 45 42 42 29 19 58 58 48 39 52 55 55 39 39 35 35 32 26
52 48 42 35 45 52 68 48 35 42 39 35 32 29 19 23 13 16 16 19 19 23 19 10 19 29 29 35 29 10 39 35 39 35 35 45 39 39 32 32 32 26 26
52 45 42 35 32 45 52 42 52 32 42 39 35 29 16 29 6 3 10 6 10 16 10 19 26 29 26 23 29 6 13 10 13 19 26 35 39 32 29 29 32 32 32
48 42 39 39 35 42 39 35 35 26 42 48 48 29 16 19 13 6 16 16 10 13 19 26 23 29 26 23 10 6 3 3 3 3 6 13 19 29 32 29 29 29 26
58 58 32 39 35 35 35 32 39 39 35 19 26 42 35 16 19 16 13 13 16 23 23 19 23 32 19 16 6 6 3 0 0 0 0 0 6 13 19 19 23 23 26
45 48 48 52 32 26 19 39 39 35 35 29 16 32 42 32 23 16 19 13 10 10 16 10 26 32 23 10 6 3 3 0 0 0 0 0 0 0 3 3 3 10 10
39 42 52 48 35 42 32 42 42 39 39 32 39 42 32 29 23 16 16 16 13 3 10 26 23 23 29 23 0 0 6 0 0 0 0 0 0 0 0 0 0 0 0
55 48 45 42 35 35 35 35 42 32 26 39 42 42 26 23 26 19 13 13 23 16 10 16 19 10 13 0 0 0 10 0 0 0 0 0 0 0 0 0 0 0 0
68 55 55 52 55 45 48 58 45 48 39 39 29 29 32 26 19 23 13 13 13 13 13 13 10 26 29 10 0 0 13 0 0 0 0 0 0 0 0 0 0 0 0
68 61 58 55 55 45 65 65 48 39 42 42 39 32 32 19 23 19 19 16 16 19 10 6 19 26 35 32 19 13 0 0 0 0 0 0 0 0 0 0 0 0 0
65 65 68 58 65 65 74 71 61 55 48 39 42 32 29 26 29 26 26 16 13 6 10 6 10 26 26 23 23 16 0 6 3 0 0 0 0 0 0 0 0 0 0
65 65 61 58 55 55 55 55 61 55 55 48 42 42 45 32 29 35 16 29 16 16 16 10 10 10 10 16 23 10 3 6 6 0 0 0 0 0 0 0 0 0 0
61 61 52 55 48 45 39 45 48 45 55 48 45 45 35 23 16 10 3 16 13 19 19 10 3 3 3 3 6 6 0 3 3 0 3 0 0 0 0 0 0 0 0
65 58 52 48 42 32 3 0 19 35 52 52 48 52 39 23 3 0 0 0 0 3 10 10 10 6 6 10 6 6 0 0 0 10 10 3 0 0 0 0 0 0 0
68 65 55 52 42 26 3 0 0 19 39 42 48 48 23 10 0 10 0 0 0 0 0 0 0 0 0 0 3 3 0 0 0 6 3 0 0 0 0 0 0 0 0
58 65 55 48 39 23 3 0 0 0 13 23 32 35 29 26 10 10 6 3 0 0 0 0 0 0 0 0 3 0 0 0 0 0 0 0 0 0 0 0 0 0 0
52 55 48 48 35 19 6 0 0 3 6 10 16 16 16 13 6 0 0 3 3 3 0 0 0 0 0 0 0 0 0 0 0 0 0 0 0 0 0 0 0 0 0
52 48 35 29 26 19 3 0 0 0 3 13 16 13 0 0 0 0 0 3 3 3 3 0 0 0 0 0 0 0 0 0 0 0 0 0 0 0 0 0 0 0 0

GEFSMA_con_cape1000_132.txt.gz
Probability
10 13 16 16 16 6 3 3 3 3 3 6 3 6 10 3 6 13 42 94 97 97 94 90 90 84 84 84 87 87 71 77 77 81 77 71 65 48 55 52 42 32 29
13 10 10 3 6 0 0 0 3 0 0 0 0 3 3 3 6 19 26 81 94 97 94 87 84 81 77 74 87 84 81 74 81 90 94 90 81 68 61 52 48 45 35
13 13 3 3 3 3 3 3 3 0 0 0 0 6 3 3 6 6 13 19 48 90 97 94 90 84 77 65 68 81 77 81 84 84 90 90 87 81 71 65 48 52 42
10 13 10 3 3 3 0 0 0 0 0 0 0 3 3 3 3 6 6 10 13 26 74 90 90 87 77 77 68 74 87 84 87 90 81 84 81 77 77 71 68 55 45
10 10 6 6 3 0 0 0 0 0 0 0 0 0 0 3 3 3 3 6 3 3 19 48 87 81 71 65 74 68 77 74 84 77 84 77 81 74 71 65 68 61 61
13 13 3 3 3 0 0 0 0 0 0 0 3 0 0 0 0 0 3 6 0 0 0 13 32 48 74 77 74 77 71 71 81 81 77 74 77 74 61 68 71 61 58
10 10 13 6 3 0 0 0 0 0 0 0 0 0 0 0 0 0 0 0 3 6 3 0 3 6 23 61 71 87 74 71 77 81 77 74 74 71 68 68 65 55 48
10 10 3 6 6 0 0 0 0 0 0 0 0 0 0 0 0 0 0 0 0 3 3 3 3 3 0 0 6 61 81 71 65 68 74 74 68 68 61 52 48 32 35
10 13 3 3 3 0 0 0 0 0 0 0 0 0 0 0 0 0 0 0 0 0 3 3 3 3 0 0 0 16 74 68 65 58 58 68 61 58 45 39 39 32 32
16 16 10 3 3 3 3 0 0 0 0 0 0 0 0 0 0 0 0 0 0 0 0 0 0 0 0 3 0 3 16 42 65 61 61 61 61 29 29 26 32 35 26
16 16 10 10 3 0 0 0 0 0 0 0 0 0 0 0 0 0 0 0 0 0 0 0 0 0 0 0 0 0 6 10 26 45 55 52 48 42 32 26 23 23 32
6 13 10 6 3 0 3 3 0 0 0 0 0 0 0 0 0 0 0 0 0 0 0 0 0 0 0 0 0 3 3 6 6 3 16 19 26 29 29 23 19 19 23
13 10 10 6 6 3 3 3 3 3 0 0 0 0 0 0 0 0 0 0 0 0 0 0 0 0 0 0 0 3 6 3 0 0 3 6 6 10 16 19 23 23 26
13 10 10 10 6 3 3 3 3 3 3 0 0 0 0 0 0 0 0 0 0 0 0 0 0 0 0 0 0 0 0 3 0 0 0 0 0 0 3 3 6 6 10
6 3 6 6 6 6 6 3 3 3 3 3 3 0 0 0 0 0 0 0 0 0 0 0 0 0 0 0 0 0 0 0 0 0 0 0 0 0 0 0 0 0 0
6 6 6 6 6 6 6 3 6 3 3 3 3 3 3 3 0 0 0 0 0 0 0 0 0 0 0 0 0 0 0 0 0 0 0 0 0 0 0 0 0 0 0
6 6 6 6 6 6 6 6 10 3 3 3 3 3 3 3 3 0 0 0 0 0 0 0 0 0 0 0 0 0 0 0 0 0 0 0 0 0 0 0 0 0 0
6 6 6 6 6 6 6 10 6 6 3 3 0 0 0 0 0 0 0 0 0 0 0 0 0 0 0 0 0 0 0 0 0 0 0 0 0 0 0 0 0 0 0
3 3 3 6 6 6 6 6 6 6 3 0 0 0 0 0 0 0 0 0 0 0 0 0 0 0 0 0 0 0 0 0 0 0 0 0 0 0 0 0 0 0 0
3 3 3 3 3 3 3 3 3 3 3 3 0 0 0 0 0 0 0 0 0 0 0 0 0 0 0 0 0 0 0 0 0 0 0 0 0 0 0 0 0 0 0
6 6 3 3 3 3 3 0 0 0 0 3 3 0 0 0 0 0 0 0 0 0 0 0 0 0 0 0 0 0 0 0 0 0 0 0 0 0 0 0 0 0 0
6 6 6 6 3 3 0 0 0 0 0 0 0 3 3 0 0 0 0 0 0 0 0 0 0 0 0 0 0 0 0 0 0 0 0 0 0 0 0 0 0 0 0
6 6 3 3 3 3 0 0 0 0 0 0 0 0 3 3 0 0 0 0 0 0 0 0 0 0 0 0 0 0 0 0 0 0 0 0 0 0 0 0 0 0 0
6 6 3 6 3 3 0 0 0 0 0 0 0 0 0 0 0 0 0 0 0 0 0 0 0 0 0 0 0 0 0 0 0 0 0 0 0 0 0 0 0 0 0
10 6 3 6 6 6 0 0 0 0 0 0 0 0 0 0 0 0 0 0 0 0 0 0 0 0 0 0 0 0 0 0 0 0 0 0 0 0 0 0 0 0 0
3 3 3 3 3 3 3 0 0 0 0 0 0 0 0 0 0 0 0 0 0 0 0 0 0 0 0 0 0 0 0 0 0 0 0 0 0 0 0 0 0 0 0